AFR610 LFPG-KLAX

Flight info

Callsign AFR610
Flight time 10h 43m
Altitude 32000
Route ATREX DCT VESAN DCT RATUK DCT SOVAT L613 LEHOC DCT BEGAM DCT APPLE DCT ABEVI DCT RUGID DCT BILLY DCT BARKU DCT RATSU/M085F320 DCT 66N020W 69N030W/M085F340 70N040W 70N050W 70N060W DCT ADSAM/N0485F340 DCT 69N070W 67N080W 64N090W DCT YRT DCT YYL/N0497F360 DCT POLLE J539 YPA Q838 TAGOT DCT 50N109W DCT WLLES DCT KU15O DCT KU90M DCT DERSO DCT KU72K DCT JAJAY DCT KO54I DCT RALEY DCT REBRG IRNMN2
Aircraft B77W/H-SDE1E2E3FGHIJ2J3J4J5M1RWXY/LB1D1

Departure

Time 2026-05-04 10:57
Airport Charles de Gaulle International Airport (LFPG)

Arrival

Time 2026-05-04 21:40
Airport Los Angeles International Airport (KLAX)
Time Latitude Longitude Altitude Speed Heading
2026-05-04 10:35 49.00150 2.57919 359 ft 0 kts 355°
2026-05-04 10:49 49.00075 2.57985 367 ft 0 kts 265°
2026-05-04 10:51 49.00073 2.57947 368 ft 5 kts 266°
2026-05-04 10:52 49.00070 2.57872 360 ft 9 kts 265°
2026-05-04 10:52 49.00050 2.57769 368 ft 11 kts 227°
2026-05-04 10:52 48.99985 2.57686 368 ft 14 kts 244°
2026-05-04 10:54 48.99847 2.56555 368 ft 16 kts 229°
2026-05-04 10:54 48.99820 2.56394 359 ft 16 kts 264°
2026-05-04 10:56 48.99645 2.56691 360 ft 90 kts 85°
2026-05-04 10:56 48.99714 2.57981 366 ft 152 kts 85°
2026-05-04 10:56 48.99820 2.59856 360 ft 200 kts 84°
2026-05-04 10:57 48.99958 2.62051 704 ft 209 kts 85°
2026-05-04 10:57 49.00089 2.64270 1310 ft 212 kts 85°
2026-05-04 10:57 49.00245 2.66515 1965 ft 215 kts 84°
2026-05-04 10:57 49.00418 2.68779 2496 ft 218 kts 84°
2026-05-04 10:58 49.00572 2.71107 2932 ft 223 kts 85°
2026-05-04 10:58 49.00713 2.73455 3446 ft 223 kts 86°
2026-05-04 10:58 49.00851 2.75856 3824 ft 233 kts 85°
2026-05-04 10:58 49.01016 2.78355 4217 ft 240 kts 85°
2026-05-04 10:59 49.01214 2.80859 5077 ft 239 kts 81°
2026-05-04 10:59 49.01626 2.83448 5255 ft 267 kts 64°
2026-05-04 10:59 49.02875 2.85685 5365 ft 297 kts 34°
2026-05-04 10:59 49.04761 2.87055 6169 ft 298 kts 12°
2026-05-04 11:00 49.06703 2.86999 7536 ft 267 kts 348°
2026-05-04 11:01 49.19328 2.78526 10704 ft 316 kts 337°
2026-05-04 11:02 49.21409 2.77139 10855 ft 336 kts 337°
2026-05-04 11:02 49.23576 2.75677 11004 ft 355 kts 336°
2026-05-04 11:05 49.58787 2.50955 19361 ft 426 kts 334°
2026-05-04 11:06 49.61496 2.49031 19849 ft 430 kts 333°
2026-05-04 11:06 49.64225 2.47090 20369 ft 434 kts 333°
2026-05-04 11:06 49.66980 2.45128 20879 ft 438 kts 333°
2026-05-04 11:06 49.69764 2.43144 21375 ft 442 kts 333°
2026-05-04 11:08 49.90390 2.29937 24410 ft 474 kts 338°
2026-05-04 11:10 50.12524 2.17131 27013 ft 495 kts 337°
2026-05-04 11:12 50.34342 2.04069 29212 ft 508 kts 330°
2026-05-04 11:12 50.37427 2.01397 29564 ft 505 kts 324°
2026-05-04 11:12 50.40307 1.98387 30017 ft 501 kts 320°
2026-05-04 11:12 50.42984 1.94955 30468 ft 494 kts 315°
2026-05-04 11:13 50.45558 1.91393 30821 ft 493 kts 314°
2026-05-04 11:13 50.48128 1.87807 31086 ft 494 kts 314°
2026-05-04 11:13 50.50700 1.84232 31400 ft 495 kts 314°
2026-05-04 11:13 50.53290 1.80659 31693 ft 495 kts 314°
2026-05-04 11:14 50.55883 1.77097 31947 ft 496 kts 314°
2026-05-04 11:14 50.58493 1.73514 32000 ft 499 kts 314°
2026-05-04 11:16 50.79820 1.44035 32020 ft 519 kts 314°
2026-05-04 11:16 50.85251 1.36476 32023 ft 521 kts 315°
2026-05-04 11:17 50.90682 1.28895 32022 ft 520 kts 314°
2026-05-04 11:19 51.12752 0.99594 32025 ft 517 kts 322°
2026-05-04 11:19 51.18698 0.93134 32029 ft 518 kts 322°
2026-05-04 11:20 51.24633 0.86608 32016 ft 519 kts 321°
2026-05-04 11:20 51.30553 0.80014 32017 ft 519 kts 321°
2026-05-04 11:22 51.54182 0.53436 32022 ft 516 kts 321°
2026-05-04 11:23 51.60008 0.46833 32033 ft 515 kts 321°
2026-05-04 11:25 51.80351 0.23608 32046 ft 510 kts 321°
2026-05-04 11:25 51.86131 0.16962 32050 ft 509 kts 322°
2026-05-04 11:27 52.12786 -0.11087 32031 ft 508 kts 330°
2026-05-04 11:28 52.19033 -0.16497 32031 ft 509 kts 330°
2026-05-04 11:28 52.25259 -0.21991 32027 ft 509 kts 330°
2026-05-04 11:29 52.31478 -0.27498 32037 ft 508 kts 330°
2026-05-04 11:29 52.37641 -0.32962 32035 ft 507 kts 330°
2026-05-04 11:33 52.80847 -0.71779 32068 ft 505 kts 332°
2026-05-04 11:33 52.86999 -0.77377 32071 ft 505 kts 332°
2026-05-04 11:34 52.93104 -0.82952 32068 ft 504 kts 332°
2026-05-04 11:34 52.99251 -0.88582 32067 ft 504 kts 332°
2026-05-04 11:35 53.05393 -0.94223 32051 ft 504 kts 333°
2026-05-04 11:35 53.11524 -0.99862 32053 ft 503 kts 333°
2026-05-04 11:36 53.17648 -1.05515 32058 ft 503 kts 334°
2026-05-04 11:36 53.23755 -1.11172 32059 ft 502 kts 334°
2026-05-04 11:37 53.29858 -1.16844 32066 ft 501 kts 334°
2026-05-04 11:37 53.35943 -1.22518 32060 ft 500 kts 334°
2026-05-04 11:38 53.42013 -1.28196 32066 ft 499 kts 334°
2026-05-04 11:38 53.48072 -1.33903 32078 ft 499 kts 334°
2026-05-04 11:39 53.54123 -1.39632 32068 ft 499 kts 334°
2026-05-04 11:41 53.75102 -1.60420 32083 ft 503 kts 324°
2026-05-04 11:41 53.80324 -1.68365 32083 ft 505 kts 320°
2026-05-04 11:42 53.85425 -1.76373 32079 ft 504 kts 321°
2026-05-04 11:42 53.90598 -1.84382 32059 ft 503 kts 321°
2026-05-04 11:43 53.95767 -1.92365 32071 ft 502 kts 321°
2026-05-04 11:43 54.01085 -1.99988 32069 ft 497 kts 328°
2026-05-04 11:44 54.07025 -2.05874 32059 ft 491 kts 339°
2026-05-04 11:44 54.13310 -2.10345 32072 ft 490 kts 340°
2026-05-04 11:45 54.19313 -2.15958 32062 ft 494 kts 329°
2026-05-04 11:45 54.24998 -2.22580 32060 ft 494 kts 328°
2026-05-04 11:46 54.30686 -2.29173 32049 ft 494 kts 329°
2026-05-04 11:46 54.36396 -2.35726 32056 ft 493 kts 329°
2026-05-04 11:47 54.42087 -2.42262 32054 ft 492 kts 329°
2026-05-04 11:47 54.47739 -2.48780 32046 ft 492 kts 328°
2026-05-04 11:48 54.53407 -2.55505 32058 ft 492 kts 326°
2026-05-04 11:48 54.58881 -2.62452 32048 ft 492 kts 326°
2026-05-04 11:49 54.64395 -2.69432 32035 ft 491 kts 326°
2026-05-04 11:49 54.69951 -2.76236 32052 ft 488 kts 330°
2026-05-04 11:50 54.75978 -2.81532 32057 ft 484 kts 339°
2026-05-04 11:50 54.82182 -2.86049 32053 ft 483 kts 339°
2026-05-04 11:51 54.88370 -2.90587 32054 ft 483 kts 338°
2026-05-04 11:51 54.94547 -2.95185 32053 ft 483 kts 338°
2026-05-04 11:52 55.00674 -2.99788 32058 ft 483 kts 338°
2026-05-04 11:52 55.06836 -3.04435 32044 ft 482 kts 338°
2026-05-04 11:53 55.12992 -3.09092 32044 ft 482 kts 338°
2026-05-04 11:53 55.19145 -3.13760 32042 ft 482 kts 337°
2026-05-04 11:55 55.43700 -3.32548 32022 ft 480 kts 336°
2026-05-04 11:56 55.49826 -3.37273 32033 ft 480 kts 336°
2026-05-04 11:56 55.55945 -3.42012 32016 ft 480 kts 335°
2026-05-04 11:57 55.62051 -3.46756 32027 ft 479 kts 335°
2026-05-04 11:57 55.68158 -3.51518 32016 ft 479 kts 335°
2026-05-04 11:58 55.74257 -3.56287 32029 ft 479 kts 335°
2026-05-04 11:58 55.80304 -3.61034 32021 ft 478 kts 335°
2026-05-04 11:59 55.85401 -3.65047 32021 ft 478 kts 335°
2026-05-04 11:59 55.91481 -3.69851 32023 ft 478 kts 335°
2026-05-04 12:00 55.97556 -3.74666 32016 ft 478 kts 335°
2026-05-04 12:00 56.03632 -3.79499 32015 ft 478 kts 335°
2026-05-04 12:01 56.09706 -3.84346 32011 ft 478 kts 335°
2026-05-04 12:02 56.30954 -4.01436 31996 ft 477 kts 334°
2026-05-04 12:03 56.37002 -4.06340 31999 ft 476 kts 334°
2026-05-04 12:03 56.43045 -4.11257 32015 ft 476 kts 334°
2026-05-04 12:04 56.49044 -4.16155 32027 ft 476 kts 334°
2026-05-04 12:04 56.55084 -4.21102 32018 ft 476 kts 333°
2026-05-04 12:05 56.61126 -4.26069 32013 ft 477 kts 333°
2026-05-04 12:05 56.67163 -4.31051 32020 ft 477 kts 333°
2026-05-04 12:06 56.73202 -4.36051 32022 ft 477 kts 333°
2026-05-04 12:06 56.79238 -4.41067 32037 ft 477 kts 333°
2026-05-04 12:07 56.85276 -4.46101 32030 ft 476 kts 332°
2026-05-04 12:07 56.91294 -4.51138 32030 ft 475 kts 332°
2026-05-04 12:08 56.97264 -4.56150 32016 ft 474 kts 332°
2026-05-04 12:08 57.03258 -4.61202 32051 ft 474 kts 332°
2026-05-04 12:09 57.09245 -4.66266 32018 ft 473 kts 332°
2026-05-04 12:09 57.15223 -4.71342 32023 ft 472 kts 332°
2026-05-04 12:10 57.21187 -4.76422 32019 ft 472 kts 331°
2026-05-04 12:10 57.27138 -4.81512 32030 ft 471 kts 331°
2026-05-04 12:11 57.33097 -4.86623 32023 ft 472 kts 331°
2026-05-04 12:11 57.38889 -4.92238 32013 ft 467 kts 323°
2026-05-04 12:12 57.44200 -4.98985 32017 ft 466 kts 322°
2026-05-04 12:12 57.49538 -5.05840 32032 ft 466 kts 322°
2026-05-04 12:14 57.70968 -5.33286 32020 ft 467 kts 321°
2026-05-04 12:15 57.76321 -5.40193 32014 ft 467 kts 321°
2026-05-04 12:15 57.81668 -5.47121 32043 ft 467 kts 321°
2026-05-04 12:16 57.87017 -5.54077 32020 ft 467 kts 321°
2026-05-04 12:16 57.92360 -5.61049 32013 ft 467 kts 321°
2026-05-04 12:17 57.97687 -5.68025 32014 ft 466 kts 320°
2026-05-04 12:17 58.03006 -5.75019 32010 ft 466 kts 320°
2026-05-04 12:18 58.08319 -5.82030 32023 ft 466 kts 320°
2026-05-04 12:18 58.13633 -5.89068 32001 ft 466 kts 320°
2026-05-04 12:19 58.18939 -5.96121 32000 ft 465 kts 320°
2026-05-04 12:19 58.24196 -6.03136 31994 ft 465 kts 320°
2026-05-04 12:20 58.29481 -6.10213 31998 ft 465 kts 320°
2026-05-04 12:20 58.34758 -6.17307 32026 ft 465 kts 320°
2026-05-04 12:21 58.40036 -6.24429 31989 ft 465 kts 320°
2026-05-04 12:21 58.45309 -6.31571 31993 ft 465 kts 320°
2026-05-04 12:22 58.50579 -6.38734 31996 ft 465 kts 320°
2026-05-04 12:22 58.55845 -6.45921 31994 ft 465 kts 320°
2026-05-04 12:23 58.61113 -6.53137 31997 ft 465 kts 320°
2026-05-04 12:23 58.66375 -6.60371 31994 ft 465 kts 320°
2026-05-04 12:24 58.71605 -6.67589 31998 ft 466 kts 320°
2026-05-04 12:24 58.76866 -6.74877 31994 ft 466 kts 320°
2026-05-04 12:25 58.82122 -6.82187 31997 ft 466 kts 320°
2026-05-04 12:25 58.87372 -6.89515 32017 ft 466 kts 320°
2026-05-04 12:26 58.92626 -6.96878 31987 ft 466 kts 319°
2026-05-04 12:26 58.97868 -7.04251 31993 ft 465 kts 319°
2026-05-04 12:27 59.03098 -7.11636 31988 ft 465 kts 319°
2026-05-04 12:27 59.08321 -7.19041 31992 ft 464 kts 319°
2026-05-04 12:28 59.13533 -7.26459 32020 ft 464 kts 319°
2026-05-04 12:28 59.18742 -7.33899 32002 ft 464 kts 319°
2026-05-04 12:29 59.23938 -7.41351 31999 ft 463 kts 319°
2026-05-04 12:29 59.29090 -7.48768 32005 ft 463 kts 319°
2026-05-04 12:30 59.34275 -7.56260 32004 ft 462 kts 319°
2026-05-04 12:30 59.39440 -7.63754 32049 ft 462 kts 319°
2026-05-04 12:31 59.44606 -7.71277 32014 ft 461 kts 319°
2026-05-04 12:31 59.49752 -7.78801 32008 ft 461 kts 319°
2026-05-04 12:32 59.57476 -7.90153 32010 ft 464 kts 319°
2026-05-04 12:33 59.62655 -7.97801 32015 ft 466 kts 319°
2026-05-04 12:33 59.67828 -8.05465 32014 ft 462 kts 319°
2026-05-04 12:34 59.72938 -8.13065 32021 ft 458 kts 319°
2026-05-04 12:34 59.78038 -8.20689 32019 ft 459 kts 319°
2026-05-04 12:35 59.83132 -8.28332 32021 ft 459 kts 319°
2026-05-04 12:35 59.88203 -8.35968 32023 ft 460 kts 319°
2026-05-04 12:36 59.93297 -8.43669 32041 ft 460 kts 318°
2026-05-04 12:36 59.98378 -8.51378 32029 ft 458 kts 318°
2026-05-04 12:37 60.03442 -8.59057 32025 ft 456 kts 319°
2026-05-04 12:37 60.08625 -8.66401 32007 ft 456 kts 320°
2026-05-04 12:38 60.13849 -8.73680 32022 ft 458 kts 321°
2026-05-04 12:38 60.19082 -8.81065 32082 ft 461 kts 320°
2026-05-04 12:39 60.24272 -8.88457 32035 ft 452 kts 320°
2026-05-04 12:39 60.29397 -8.95802 32036 ft 452 kts 320°
2026-05-04 12:40 60.34527 -9.03187 32038 ft 453 kts 320°
2026-05-04 12:40 60.39659 -9.10600 32035 ft 454 kts 320°
2026-05-04 12:41 60.44794 -9.18043 32081 ft 454 kts 320°
2026-05-04 12:41 60.49929 -9.25517 32046 ft 454 kts 320°
2026-05-04 12:42 60.55050 -9.33000 32033 ft 453 kts 320°
2026-05-04 12:42 60.60147 -9.40474 32034 ft 451 kts 319°
2026-05-04 12:43 60.65230 -9.47960 32037 ft 450 kts 319°
2026-05-04 12:43 60.70261 -9.55401 32065 ft 450 kts 319°
2026-05-04 12:44 60.75330 -9.62928 32031 ft 450 kts 319°
2026-05-04 12:44 60.80385 -9.70466 32039 ft 450 kts 319°
2026-05-04 12:45 60.85443 -9.78038 32037 ft 450 kts 319°
2026-05-04 12:45 60.90501 -9.85639 32040 ft 451 kts 319°
2026-05-04 12:46 60.95558 -9.93268 32042 ft 451 kts 319°
2026-05-04 12:46 61.00617 -10.00935 32047 ft 451 kts 319°
2026-05-04 12:47 61.05605 -10.08744 32043 ft 449 kts 318°
2026-05-04 12:47 61.10507 -10.16554 32038 ft 447 kts 317°
2026-05-04 12:48 61.15422 -10.24405 32042 ft 446 kts 317°
2026-05-04 12:48 61.20331 -10.32258 32049 ft 445 kts 317°
2026-05-04 12:49 61.25234 -10.40123 32044 ft 445 kts 317°
2026-05-04 12:49 61.30131 -10.48006 32047 ft 445 kts 317°
2026-05-04 12:50 61.34206 -10.54592 32011 ft 446 kts 318°
2026-05-04 12:50 61.39111 -10.62550 32036 ft 449 kts 318°
2026-05-04 12:51 61.44045 -10.70587 32060 ft 451 kts 318°
2026-05-04 12:51 61.48996 -10.78684 32045 ft 452 kts 317°
2026-05-04 12:52 61.53909 -10.86744 32042 ft 443 kts 317°
2026-05-04 12:52 61.58740 -10.94708 32044 ft 441 kts 317°
2026-05-04 12:53 61.63535 -11.02654 32058 ft 442 kts 317°
2026-05-04 12:53 61.68368 -11.10692 32054 ft 443 kts 317°
2026-05-04 12:54 61.73206 -11.18769 32057 ft 444 kts 317°
2026-05-04 12:54 61.78046 -11.26883 32101 ft 444 kts 317°
2026-05-04 12:55 61.82874 -11.35008 32072 ft 443 kts 317°
2026-05-04 12:55 61.87680 -11.43130 32057 ft 441 kts 316°
2026-05-04 12:56 61.92463 -11.51246 32065 ft 439 kts 316°
2026-05-04 12:56 61.97223 -11.59359 32063 ft 438 kts 317°
2026-05-04 12:57 62.01972 -11.67488 32070 ft 439 kts 316°
2026-05-04 12:57 62.06728 -11.75662 32076 ft 440 kts 316°
2026-05-04 12:58 62.11481 -11.83864 32076 ft 439 kts 316°
2026-05-04 12:58 62.16220 -11.92072 32084 ft 438 kts 316°
2026-05-04 12:59 62.20946 -12.00295 32084 ft 437 kts 316°
2026-05-04 12:59 62.25658 -12.08528 32090 ft 437 kts 316°
2026-05-04 13:00 62.30360 -12.16778 32159 ft 436 kts 316°
2026-05-04 13:00 62.35049 -12.25038 32101 ft 434 kts 316°
2026-05-04 13:01 62.39676 -12.33222 32090 ft 432 kts 316°
2026-05-04 13:01 62.44302 -12.41439 32090 ft 430 kts 315°
2026-05-04 13:02 62.48906 -12.49654 32099 ft 429 kts 315°
2026-05-04 13:02 62.53507 -12.57896 32099 ft 429 kts 315°
2026-05-04 13:03 62.58101 -12.66160 32114 ft 430 kts 315°
2026-05-04 13:03 62.62706 -12.74478 32106 ft 430 kts 315°
2026-05-04 13:04 62.67303 -12.82817 32105 ft 430 kts 315°
2026-05-04 13:04 62.71897 -12.91182 32104 ft 430 kts 315°
2026-05-04 13:05 62.76484 -12.99571 32107 ft 430 kts 315°
2026-05-04 13:05 62.81064 -13.07983 32112 ft 430 kts 315°
2026-05-04 13:06 62.85634 -13.16411 32141 ft 429 kts 315°
2026-05-04 13:06 62.90154 -13.24781 32109 ft 426 kts 315°
2026-05-04 13:07 62.94663 -13.33164 32112 ft 423 kts 315°
2026-05-04 13:07 62.99141 -13.41529 32113 ft 422 kts 315°
2026-05-04 13:08 63.03605 -13.49903 32116 ft 422 kts 315°
2026-05-04 13:08 63.08066 -13.58307 32111 ft 422 kts 315°
2026-05-04 13:09 63.12532 -13.66754 32125 ft 423 kts 315°
2026-05-04 13:09 63.17002 -13.75244 32091 ft 423 kts 315°
2026-05-04 13:10 63.21464 -13.83754 32117 ft 424 kts 315°
2026-05-04 13:10 63.25927 -13.92303 32119 ft 425 kts 315°
2026-05-04 13:11 63.30402 -14.00910 32135 ft 426 kts 315°
2026-05-04 13:11 63.34880 -14.09561 32131 ft 426 kts 314°
2026-05-04 13:12 63.39360 -14.18251 32142 ft 427 kts 315°
2026-05-04 13:12 63.43840 -14.26978 32131 ft 427 kts 315°
2026-05-04 13:13 63.48280 -14.35666 32135 ft 426 kts 315°
2026-05-04 13:13 63.52737 -14.44424 32132 ft 426 kts 314°
2026-05-04 13:14 63.57179 -14.53191 32134 ft 425 kts 314°
2026-05-04 13:14 63.61613 -14.61981 32208 ft 425 kts 314°
2026-05-04 13:15 63.66043 -14.70803 32149 ft 426 kts 315°
2026-05-04 13:15 63.70468 -14.79650 32138 ft 425 kts 314°
2026-05-04 13:16 63.74882 -14.88513 32083 ft 424 kts 314°
2026-05-04 13:16 63.79264 -14.97350 32128 ft 421 kts 314°
2026-05-04 13:17 63.83630 -15.06195 32138 ft 420 kts 314°
2026-05-04 13:17 63.87982 -15.15051 32139 ft 420 kts 314°
2026-05-04 13:18 63.92323 -15.23922 32141 ft 420 kts 314°
2026-05-04 13:18 63.96661 -15.32826 32139 ft 420 kts 314°
2026-05-04 13:19 64.00997 -15.41764 32130 ft 420 kts 314°
2026-05-04 13:19 64.05303 -15.50680 32128 ft 421 kts 314°
2026-05-04 13:20 64.09659 -15.59739 32124 ft 421 kts 314°
2026-05-04 13:20 64.13957 -15.68716 32181 ft 421 kts 314°
2026-05-04 13:21 64.18289 -15.77803 32142 ft 423 kts 314°
2026-05-04 13:21 64.22624 -15.86936 32132 ft 423 kts 314°
2026-05-04 13:22 64.26944 -15.96078 32169 ft 422 kts 314°
2026-05-04 13:22 64.31257 -16.05251 32166 ft 422 kts 314°
2026-05-04 13:23 64.35568 -16.14456 32171 ft 422 kts 314°
2026-05-04 13:23 64.39865 -16.23673 32183 ft 421 kts 313°
2026-05-04 13:24 64.44168 -16.32945 32204 ft 423 kts 313°
2026-05-04 13:24 64.48474 -16.42267 32216 ft 424 kts 313°
2026-05-04 13:25 64.54945 -16.56352 32213 ft 425 kts 313°
2026-05-04 13:25 64.59248 -16.65772 32217 ft 425 kts 313°
2026-05-04 13:26 64.63550 -16.75231 32227 ft 425 kts 313°
2026-05-04 13:26 64.67851 -16.84735 32237 ft 427 kts 313°
2026-05-04 13:27 64.72174 -16.94330 32227 ft 429 kts 313°
2026-05-04 13:27 64.76469 -17.03908 32230 ft 430 kts 313°
2026-05-04 13:28 64.80802 -17.13614 32227 ft 431 kts 313°
2026-05-04 13:28 64.85128 -17.23349 32238 ft 431 kts 313°
2026-05-04 13:29 64.89451 -17.33125 32242 ft 431 kts 313°
2026-05-04 13:29 64.93772 -17.42941 32259 ft 432 kts 313°
2026-05-04 13:30 64.98106 -17.52835 32234 ft 433 kts 313°
2026-05-04 13:30 65.02434 -17.62761 32235 ft 434 kts 313°
2026-05-04 13:31 65.06758 -17.72725 32230 ft 434 kts 313°
2026-05-04 13:31 65.11075 -17.82720 32227 ft 433 kts 313°
2026-05-04 13:32 65.15382 -17.92742 32224 ft 433 kts 313°
2026-05-04 13:32 65.19656 -18.02737 32230 ft 435 kts 313°
2026-05-04 13:33 65.23997 -18.12935 32218 ft 436 kts 313°
2026-05-04 13:33 65.28289 -18.23067 32253 ft 437 kts 313°
2026-05-04 13:34 65.32613 -18.33317 32218 ft 438 kts 313°
2026-05-04 13:34 65.36927 -18.43600 32217 ft 438 kts 313°
2026-05-04 13:35 65.43390 -18.59098 32273 ft 438 kts 313°
2026-05-04 13:36 65.47710 -18.69532 32224 ft 441 kts 313°
2026-05-04 13:36 65.52033 -18.80020 32214 ft 441 kts 312°
2026-05-04 13:37 65.56340 -18.90518 32233 ft 440 kts 312°
2026-05-04 13:37 65.60636 -19.01037 32236 ft 439 kts 312°
2026-05-04 13:38 65.64914 -19.11567 32229 ft 438 kts 312°
2026-05-04 13:38 65.69170 -19.22098 32285 ft 437 kts 312°
2026-05-04 13:39 65.73421 -19.32673 32269 ft 439 kts 312°
2026-05-04 13:39 65.77684 -19.43333 32256 ft 440 kts 312°
2026-05-04 13:40 65.81233 -19.52240 32263 ft 440 kts 312°
2026-05-04 13:40 65.85497 -19.62997 32260 ft 441 kts 312°
2026-05-04 13:41 65.89756 -19.73794 32265 ft 441 kts 312°
2026-05-04 13:41 65.94007 -19.84629 32298 ft 441 kts 312°
2026-05-04 13:42 66.00401 -20.01027 32277 ft 445 kts 311°
2026-05-04 13:42 66.04585 -20.12139 32275 ft 446 kts 311°
2026-05-04 13:43 66.08766 -20.23461 32219 ft 447 kts 310°
2026-05-04 13:43 66.12898 -20.34686 32258 ft 437 kts 310°
2026-05-04 13:44 66.16982 -20.45811 32268 ft 437 kts 310°
2026-05-04 13:44 66.21073 -20.57003 32289 ft 440 kts 310°
2026-05-04 13:45 66.25183 -20.68301 32287 ft 443 kts 310°
2026-05-04 13:45 66.29306 -20.79694 32287 ft 445 kts 310°
2026-05-04 13:46 66.33439 -20.91174 32285 ft 446 kts 310°
2026-05-04 13:46 66.37570 -21.02712 32283 ft 447 kts 310°
2026-05-04 13:47 66.41702 -21.14313 32301 ft 447 kts 310°
2026-05-04 13:47 66.45820 -21.25938 32301 ft 446 kts 310°
2026-05-04 13:48 66.49896 -21.37507 32301 ft 446 kts 310°
2026-05-04 13:48 66.53982 -21.49168 32301 ft 445 kts 309°
2026-05-04 13:49 66.58058 -21.60863 32305 ft 444 kts 309°
2026-05-04 13:49 66.62115 -21.72567 32259 ft 444 kts 309°
2026-05-04 13:50 66.66143 -21.84249 32300 ft 440 kts 309°
2026-05-04 13:50 66.70160 -21.95964 32397 ft 443 kts 309°
2026-05-04 13:51 66.74201 -22.07816 32633 ft 446 kts 309°
2026-05-04 13:51 66.76222 -22.13766 32763 ft 447 kts 309°
2026-05-04 13:51 66.78249 -22.19750 32914 ft 447 kts 309°
2026-05-04 13:52 66.82300 -22.31761 33185 ft 449 kts 309°
2026-05-04 13:52 66.84323 -22.37781 33335 ft 449 kts 309°
2026-05-04 13:52 66.86348 -22.43828 33500 ft 449 kts 309°
2026-05-04 13:53 66.88368 -22.49875 33675 ft 449 kts 309°
2026-05-04 13:53 66.90391 -22.55949 33836 ft 449 kts 309°
2026-05-04 13:53 66.92407 -22.62016 34076 ft 449 kts 309°
2026-05-04 13:54 66.96462 -22.74279 34206 ft 453 kts 309°
2026-05-04 13:54 66.98492 -22.80442 34282 ft 453 kts 309°
2026-05-04 13:55 67.04521 -22.98849 34347 ft 450 kts 308°
2026-05-04 13:55 67.10523 -23.17331 34355 ft 449 kts 308°
2026-05-04 13:56 67.14505 -23.29681 34317 ft 449 kts 308°
2026-05-04 13:57 67.20454 -23.48263 34368 ft 449 kts 308°
2026-05-04 13:58 67.28371 -23.73243 34380 ft 450 kts 308°
2026-05-04 13:58 67.34296 -23.92128 34364 ft 451 kts 308°
2026-05-04 13:59 67.38238 -24.04783 34393 ft 451 kts 308°
2026-05-04 14:00 67.44142 -24.23876 34390 ft 453 kts 307°
2026-05-04 14:00 67.50061 -24.43185 34392 ft 455 kts 307°
2026-05-04 14:01 67.54005 -24.56150 34398 ft 456 kts 307°
2026-05-04 14:02 67.59916 -24.75723 34397 ft 457 kts 307°
2026-05-04 14:02 67.63819 -24.88743 34413 ft 457 kts 307°
2026-05-04 14:03 67.67743 -25.01913 34398 ft 457 kts 307°
2026-05-04 14:03 67.71651 -25.15109 34399 ft 456 kts 307°
2026-05-04 14:04 67.77479 -25.34939 34404 ft 455 kts 307°
2026-05-04 14:04 67.81343 -25.48185 34404 ft 455 kts 306°
2026-05-04 14:05 67.87112 -25.68116 34436 ft 455 kts 306°
2026-05-04 14:06 67.90953 -25.81488 34417 ft 456 kts 306°
2026-05-04 14:06 67.94796 -25.94949 34418 ft 457 kts 306°
2026-05-04 14:07 67.98614 -26.08403 34416 ft 459 kts 306°
2026-05-04 14:07 68.02453 -26.22017 34416 ft 460 kts 306°
2026-05-04 14:08 68.06288 -26.35702 34419 ft 460 kts 306°
2026-05-04 14:08 68.10115 -26.49444 34441 ft 461 kts 306°
2026-05-04 14:09 68.15852 -26.70209 34397 ft 462 kts 305°
2026-05-04 14:10 68.21551 -26.91032 34421 ft 459 kts 305°
2026-05-04 14:10 68.25316 -27.04901 34426 ft 458 kts 305°
2026-05-04 14:11 68.29061 -27.18781 34425 ft 457 kts 305°
2026-05-04 14:11 68.34627 -27.39581 34434 ft 458 kts 304°
2026-05-04 14:12 68.38356 -27.53625 34433 ft 460 kts 304°
2026-05-04 14:13 68.43950 -27.74867 34427 ft 462 kts 304°
2026-05-04 14:13 68.47682 -27.89155 34440 ft 463 kts 304°
2026-05-04 14:14 68.51406 -28.03505 34441 ft 464 kts 304°
2026-05-04 14:14 68.56979 -28.25157 34467 ft 465 kts 304°
2026-05-04 14:15 68.64393 -28.54303 34451 ft 466 kts 303°
2026-05-04 14:16 68.69905 -28.76224 34461 ft 463 kts 303°
2026-05-04 14:17 68.75349 -28.98093 34469 ft 460 kts 303°
2026-05-04 14:18 68.80711 -29.19851 34481 ft 459 kts 303°
2026-05-04 14:19 68.87848 -29.49173 34472 ft 460 kts 302°
2026-05-04 14:19 68.91409 -29.63936 34490 ft 460 kts 302°
2026-05-04 14:20 68.94961 -29.78768 34473 ft 461 kts 302°
2026-05-04 14:20 68.98492 -29.93687 34521 ft 462 kts 300°
2026-05-04 14:21 69.02492 -30.18160 34535 ft 464 kts 290°
2026-05-04 14:21 69.04684 -30.35028 34516 ft 465 kts 290°
2026-05-04 14:22 69.06886 -30.51981 34529 ft 463 kts 290°
2026-05-04 14:22 69.09078 -30.68885 34508 ft 461 kts 290°
2026-05-04 14:23 69.12330 -30.94147 34504 ft 458 kts 289°
2026-05-04 14:24 69.14470 -31.11004 34504 ft 459 kts 289°
2026-05-04 14:24 69.16600 -31.27958 34468 ft 461 kts 289°
2026-05-04 14:25 69.18726 -31.45020 34465 ft 463 kts 289°
2026-05-04 14:25 69.21894 -31.70764 34468 ft 465 kts 289°
2026-05-04 14:26 69.23991 -31.88026 34460 ft 466 kts 288°
2026-05-04 14:26 69.26067 -32.05288 34463 ft 463 kts 288°
2026-05-04 14:27 69.28113 -32.22482 34502 ft 460 kts 288°
2026-05-04 14:27 69.30136 -32.39650 34480 ft 461 kts 288°
2026-05-04 14:28 69.32147 -32.56905 34478 ft 462 kts 288°
2026-05-04 14:28 69.34146 -32.74229 34480 ft 464 kts 288°
2026-05-04 14:29 69.38097 -33.09023 34494 ft 466 kts 287°
2026-05-04 14:30 69.40058 -33.26564 34485 ft 466 kts 287°
2026-05-04 14:31 69.42968 -33.52965 34485 ft 468 kts 287°
2026-05-04 14:32 69.46800 -33.88410 34483 ft 469 kts 287°
2026-05-04 14:32 69.48387 -34.03325 34483 ft 470 kts 287°
2026-05-04 14:33 69.50255 -34.21065 34465 ft 470 kts 286°
2026-05-04 14:33 69.52117 -34.38949 34462 ft 470 kts 286°
2026-05-04 14:34 69.53962 -34.56875 34461 ft 470 kts 286°
2026-05-04 14:34 69.55787 -34.74822 34447 ft 471 kts 286°
2026-05-04 14:35 69.57599 -34.92859 34448 ft 472 kts 285°
2026-05-04 14:35 69.59399 -35.10977 34424 ft 473 kts 285°
2026-05-04 14:36 69.61177 -35.29113 34415 ft 472 kts 285°
2026-05-04 14:36 69.62935 -35.47253 34414 ft 472 kts 285°
2026-05-04 14:37 69.64675 -35.65440 34412 ft 472 kts 285°
2026-05-04 14:37 69.66393 -35.83617 34396 ft 471 kts 285°
2026-05-04 14:38 69.68093 -36.01831 34408 ft 472 kts 285°
2026-05-04 14:38 69.69766 -36.19988 34393 ft 473 kts 284°
2026-05-04 14:39 69.71437 -36.38354 34390 ft 474 kts 284°
2026-05-04 14:39 69.73092 -36.56786 34356 ft 475 kts 284°
2026-05-04 14:40 69.75533 -36.84434 34377 ft 473 kts 284°
2026-05-04 14:40 69.77131 -37.02839 34389 ft 472 kts 284°
2026-05-04 14:41 69.78708 -37.21242 34402 ft 471 kts 284°
2026-05-04 14:42 69.81807 -37.58178 34394 ft 473 kts 283°
2026-05-04 14:42 69.83330 -37.76714 34392 ft 474 kts 283°
2026-05-04 14:43 69.84838 -37.95336 34390 ft 474 kts 283°
2026-05-04 14:43 69.86327 -38.13989 34388 ft 475 kts 283°
2026-05-04 14:44 69.87796 -38.32676 34391 ft 474 kts 283°
2026-05-04 14:44 69.89243 -38.51344 34402 ft 473 kts 283°
2026-05-04 14:45 69.90659 -38.69895 34394 ft 473 kts 283°
2026-05-04 14:45 69.92065 -38.88590 34408 ft 473 kts 282°
2026-05-04 14:46 69.93452 -39.07324 34408 ft 473 kts 282°
2026-05-04 14:46 69.94819 -39.26069 34410 ft 473 kts 282°
2026-05-04 14:47 69.96166 -39.44850 34411 ft 473 kts 282°
2026-05-04 14:47 69.97494 -39.63664 34412 ft 473 kts 282°
2026-05-04 14:48 69.98806 -39.82503 34439 ft 474 kts 282°
2026-05-04 14:48 70.00046 -40.01411 34424 ft 474 kts 278°
2026-05-04 14:49 70.00620 -40.20597 34427 ft 474 kts 275°
2026-05-04 14:49 70.01087 -40.39836 34432 ft 475 kts 275°
2026-05-04 14:50 70.01552 -40.58974 34431 ft 475 kts 275°
2026-05-04 14:50 70.02014 -40.78220 34431 ft 475 kts 275°
2026-05-04 14:51 70.02462 -40.97491 34439 ft 475 kts 275°
2026-05-04 14:51 70.02888 -41.16761 34435 ft 475 kts 275°
2026-05-04 14:52 70.03292 -41.36044 34393 ft 475 kts 274°
2026-05-04 14:52 70.03673 -41.55288 34436 ft 472 kts 274°
2026-05-04 14:53 70.04034 -41.74448 34441 ft 471 kts 274°
2026-05-04 14:53 70.04373 -41.93561 34443 ft 470 kts 274°
2026-05-04 14:54 70.04691 -42.12655 34445 ft 469 kts 274°
2026-05-04 14:54 70.04989 -42.31763 34445 ft 469 kts 274°
2026-05-04 14:55 70.05264 -42.50734 34443 ft 470 kts 274°
2026-05-04 14:55 70.05520 -42.69842 34467 ft 470 kts 274°
2026-05-04 14:56 70.05756 -42.89013 34434 ft 470 kts 274°
2026-05-04 14:56 70.05972 -43.08155 34456 ft 470 kts 273°
2026-05-04 14:57 70.06168 -43.27271 34445 ft 469 kts 273°
2026-05-04 14:57 70.06343 -43.46396 34461 ft 469 kts 273°
2026-05-04 14:58 70.06496 -43.65489 34454 ft 469 kts 273°
2026-05-04 14:58 70.06630 -43.84585 34465 ft 469 kts 272°
2026-05-04 14:59 70.06743 -44.03677 34463 ft 468 kts 272°
2026-05-04 15:00 70.06875 -44.32322 34414 ft 469 kts 272°
2026-05-04 15:00 70.06936 -44.51401 34468 ft 467 kts 272°
2026-05-04 15:01 70.06991 -44.79814 34471 ft 466 kts 272°
2026-05-04 15:01 70.07003 -44.98812 34469 ft 466 kts 272°
2026-05-04 15:02 70.06994 -45.17795 34478 ft 466 kts 271°
2026-05-04 15:02 70.06965 -45.36766 34479 ft 466 kts 271°
2026-05-04 15:03 70.06916 -45.55750 34470 ft 466 kts 271°
2026-05-04 15:03 70.06847 -45.74739 34497 ft 466 kts 271°
2026-05-04 15:04 70.06756 -45.93731 34471 ft 465 kts 271°
2026-05-04 15:04 70.06647 -46.12668 34469 ft 464 kts 271°
2026-05-04 15:05 70.06519 -46.31550 34478 ft 463 kts 271°
2026-05-04 15:05 70.06370 -46.50412 34477 ft 462 kts 271°
2026-05-04 15:06 70.06202 -46.69252 34478 ft 462 kts 270°
2026-05-04 15:07 70.05912 -46.97483 34478 ft 462 kts 270°
2026-05-04 15:07 70.05694 -47.16306 34478 ft 462 kts 270°
2026-05-04 15:08 70.05456 -47.35142 34438 ft 463 kts 270°
2026-05-04 15:08 70.05201 -47.53789 34466 ft 461 kts 270°
2026-05-04 15:09 70.04925 -47.72497 34487 ft 459 kts 270°
2026-05-04 15:09 70.04631 -47.91158 34480 ft 458 kts 270°
2026-05-04 15:10 70.04153 -48.19092 34489 ft 458 kts 269°
2026-05-04 15:11 70.03633 -48.46989 34494 ft 458 kts 269°
2026-05-04 15:11 70.03261 -48.65595 34488 ft 458 kts 269°
2026-05-04 15:12 70.02870 -48.84205 34481 ft 459 kts 269°
2026-05-04 15:12 70.02459 -49.02830 34498 ft 459 kts 269°
2026-05-04 15:13 70.02028 -49.21487 34478 ft 460 kts 268°
2026-05-04 15:13 70.01577 -49.40139 34472 ft 460 kts 268°
2026-05-04 15:14 70.01107 -49.58792 34467 ft 460 kts 268°
2026-05-04 15:14 70.00620 -49.77450 34442 ft 461 kts 268°
2026-05-04 15:15 70.00135 -49.96114 34432 ft 460 kts 270°
2026-05-04 15:15 70.00345 -50.14594 34451 ft 458 kts 276°
2026-05-04 15:16 70.01127 -50.42417 34418 ft 456 kts 276°
2026-05-04 15:17 70.01820 -50.70087 34420 ft 453 kts 276°
2026-05-04 15:17 70.02462 -50.97604 34431 ft 452 kts 275°
2026-05-04 15:18 70.02866 -51.15936 34420 ft 451 kts 275°
2026-05-04 15:19 70.03438 -51.43442 34447 ft 452 kts 275°
2026-05-04 15:19 70.03968 -51.71027 34439 ft 453 kts 275°
2026-05-04 15:20 70.04298 -51.89367 34419 ft 455 kts 274°
2026-05-04 15:20 70.04610 -52.07875 34425 ft 456 kts 274°
2026-05-04 15:21 70.04904 -52.26396 34416 ft 454 kts 274°
2026-05-04 15:22 70.05305 -52.54047 34418 ft 452 kts 274°
2026-05-04 15:22 70.05626 -52.78446 34425 ft 450 kts 274°
2026-05-04 15:23 70.05844 -52.96770 34412 ft 450 kts 274°
2026-05-04 15:23 70.06042 -53.15083 34405 ft 449 kts 273°
2026-05-04 15:24 70.06384 -53.51747 34403 ft 452 kts 273°
2026-05-04 15:25 70.06526 -53.70139 34405 ft 451 kts 273°
2026-05-04 15:26 70.06706 -53.97741 34414 ft 452 kts 272°
2026-05-04 15:26 70.06845 -54.25305 34405 ft 450 kts 272°
2026-05-04 15:27 70.06937 -54.52803 34400 ft 450 kts 272°
2026-05-04 15:28 70.06992 -54.80317 34392 ft 449 kts 271°
2026-05-04 15:29 70.06998 -55.07775 34396 ft 449 kts 271°
2026-05-04 15:30 70.06857 -55.71624 34406 ft 448 kts 271°
2026-05-04 15:31 70.06730 -55.98986 34402 ft 446 kts 270°
2026-05-04 15:32 70.06418 -56.44305 34406 ft 444 kts 270°
2026-05-04 15:34 70.05997 -56.89561 34414 ft 445 kts 269°
2026-05-04 15:34 70.05688 -57.16738 34433 ft 445 kts 269°
2026-05-04 15:35 70.05339 -57.43819 34435 ft 446 kts 269°
2026-05-04 15:36 70.04948 -57.71059 34403 ft 446 kts 268°
2026-05-04 15:36 70.04663 -57.89144 34445 ft 445 kts 268°
2026-05-04 15:37 70.04360 -58.07237 34446 ft 445 kts 268°
2026-05-04 15:37 70.04040 -58.25305 34458 ft 445 kts 268°
2026-05-04 15:38 70.03702 -58.43382 34458 ft 445 kts 268°
2026-05-04 15:38 70.03345 -58.61441 34466 ft 445 kts 268°
2026-05-04 15:39 70.02972 -58.79398 34469 ft 445 kts 268°
2026-05-04 15:40 70.02376 -59.06488 34472 ft 445 kts 267°
2026-05-04 15:40 70.01955 -59.24558 34479 ft 446 kts 267°
2026-05-04 15:41 70.01515 -59.42640 34475 ft 446 kts 267°
2026-05-04 15:41 70.01059 -59.60698 34466 ft 445 kts 266°
2026-05-04 15:42 70.00582 -59.78751 34480 ft 445 kts 266°
2026-05-04 15:42 70.00091 -59.96775 34486 ft 445 kts 266°
2026-05-04 15:43 69.99687 -60.14829 34492 ft 445 kts 268°
2026-05-04 15:43 69.99416 -60.32898 34493 ft 445 kts 268°
2026-05-04 15:44 69.99126 -60.50972 34501 ft 446 kts 268°
2026-05-04 15:44 69.98796 -60.69066 34499 ft 446 kts 268°
2026-05-04 15:45 69.98438 -60.87147 34498 ft 446 kts 267°
2026-05-04 15:45 69.98060 -61.05227 34499 ft 446 kts 267°
2026-05-04 15:46 69.97664 -61.23313 34504 ft 446 kts 267°
2026-05-04 15:46 69.97250 -61.41381 34454 ft 446 kts 266°
2026-05-04 15:47 69.96820 -61.59426 34491 ft 447 kts 266°
2026-05-04 15:47 69.96367 -61.77523 34509 ft 448 kts 266°
2026-05-04 15:48 69.95896 -61.95670 34513 ft 449 kts 266°
2026-05-04 15:48 69.95157 -62.22804 34504 ft 450 kts 266°
2026-05-04 15:49 69.94638 -62.40992 34507 ft 450 kts 265°
2026-05-04 15:49 69.94100 -62.59182 34514 ft 450 kts 265°
2026-05-04 15:50 69.93544 -62.77363 34521 ft 450 kts 265°
2026-05-04 15:50 69.92971 -62.95526 34524 ft 450 kts 265°
2026-05-04 15:51 69.92372 -63.13676 34516 ft 450 kts 264°
2026-05-04 15:51 69.91095 -63.31501 34462 ft 452 kts 253°
2026-05-04 15:52 69.89091 -63.48827 34518 ft 453 kts 253°
2026-05-04 15:52 69.87088 -63.66218 34531 ft 455 kts 253°
2026-05-04 15:53 69.85079 -63.83660 34529 ft 457 kts 253°
2026-05-04 15:53 69.83063 -64.01033 34527 ft 458 kts 253°
2026-05-04 15:54 69.81010 -64.18534 34521 ft 459 kts 252°
2026-05-04 15:54 69.78940 -64.35996 34530 ft 459 kts 252°
2026-05-04 15:55 69.76851 -64.53437 34523 ft 459 kts 252°
2026-05-04 15:55 69.74748 -64.70813 34482 ft 458 kts 251°
2026-05-04 15:56 69.72626 -64.88169 34526 ft 460 kts 251°
2026-05-04 15:56 69.70480 -65.05547 34535 ft 461 kts 251°
2026-05-04 15:57 69.68307 -65.22975 34533 ft 463 kts 251°
2026-05-04 15:57 69.66111 -65.40406 34535 ft 464 kts 251°
2026-05-04 15:58 69.63891 -65.57854 34534 ft 465 kts 251°
2026-05-04 15:58 69.61652 -65.75274 34535 ft 466 kts 251°
2026-05-04 15:59 69.59394 -65.92680 34536 ft 466 kts 250°
2026-05-04 15:59 69.57117 -66.10055 34536 ft 466 kts 250°
2026-05-04 16:00 69.54827 -66.27368 34539 ft 465 kts 250°
2026-05-04 16:00 69.52522 -66.44626 34547 ft 465 kts 250°
2026-05-04 16:01 69.50200 -66.61843 34544 ft 464 kts 250°
2026-05-04 16:01 69.47864 -66.79007 34544 ft 464 kts 250°
2026-05-04 16:02 69.45509 -66.96145 34550 ft 464 kts 250°
2026-05-04 16:03 69.41965 -67.21641 34552 ft 464 kts 250°
2026-05-04 16:03 69.39575 -67.38642 34533 ft 464 kts 249°
2026-05-04 16:04 69.37154 -67.55701 34553 ft 467 kts 248°
2026-05-04 16:04 69.33463 -67.81410 34554 ft 472 kts 248°
2026-05-04 16:05 69.30967 -67.98605 34549 ft 474 kts 248°
2026-05-04 16:06 69.27171 -68.24455 34538 ft 475 kts 248°
2026-05-04 16:07 69.22051 -68.58773 34514 ft 474 kts 248°
2026-05-04 16:08 69.16859 -68.92955 34487 ft 477 kts 247°
2026-05-04 16:09 69.10219 -69.35806 34490 ft 481 kts 246°
2026-05-04 16:10 69.04835 -69.69876 34427 ft 474 kts 246°
2026-05-04 16:11 68.99464 -70.03334 34395 ft 475 kts 245°
2026-05-04 16:12 68.91889 -70.51532 34350 ft 483 kts 245°
2026-05-04 16:13 68.86418 -70.85618 34335 ft 483 kts 245°
2026-05-04 16:14 68.80908 -71.19336 34302 ft 481 kts 244°
2026-05-04 16:16 68.73832 -71.61808 34314 ft 492 kts 243°
2026-05-04 16:17 68.66547 -72.04600 34303 ft 495 kts 243°
2026-05-04 16:18 68.60640 -72.38671 34289 ft 494 kts 242°
2026-05-04 16:19 68.53141 -72.81065 34284 ft 500 kts 243°
2026-05-04 16:20 68.45441 -73.23731 34278 ft 503 kts 242°
2026-05-04 16:22 68.37610 -73.66212 34272 ft 504 kts 241°
2026-05-04 16:23 68.27968 -74.17352 34260 ft 512 kts 240°
2026-05-04 16:25 68.18120 -74.68316 34258 ft 511 kts 240°
2026-05-04 16:26 68.06408 -75.27348 34243 ft 515 kts 240°
2026-05-04 16:28 67.97847 -75.69478 34244 ft 517 kts 240°
2026-05-04 16:29 67.85743 -76.27643 34224 ft 519 kts 239°
2026-05-04 16:31 67.76842 -76.69430 34206 ft 522 kts 239°
2026-05-04 16:32 67.66144 -77.18596 34187 ft 513 kts 238°
2026-05-04 16:33 67.58909 -77.51203 34184 ft 520 kts 238°
2026-05-04 16:34 67.53405 -77.75699 34181 ft 521 kts 238°
2026-05-04 16:35 67.42314 -78.24220 34170 ft 514 kts 237°
2026-05-04 16:36 67.36779 -78.48034 34157 ft 515 kts 237°
2026-05-04 16:37 67.31184 -78.71831 34162 ft 519 kts 237°
2026-05-04 16:38 67.23606 -79.03676 34144 ft 520 kts 236°
2026-05-04 16:39 67.14110 -79.42929 34139 ft 518 kts 236°
2026-05-04 16:40 67.06376 -79.74383 34131 ft 522 kts 235°
2026-05-04 16:41 66.96682 -80.13612 34106 ft 523 kts 236°
2026-05-04 16:43 66.87238 -80.53116 34127 ft 522 kts 236°
2026-05-04 16:43 66.81498 -80.76621 34110 ft 522 kts 236°
2026-05-04 16:45 66.69877 -81.23404 34095 ft 524 kts 235°
2026-05-04 16:46 66.60047 -81.62230 34085 ft 529 kts 235°
2026-05-04 16:47 66.52051 -81.93316 34069 ft 530 kts 234°
2026-05-04 16:48 66.43985 -82.24233 34051 ft 530 kts 234°
2026-05-04 16:49 66.35861 -82.54938 34060 ft 530 kts 234°
2026-05-04 16:50 66.27678 -82.85442 34049 ft 530 kts 233°
2026-05-04 16:51 66.21526 -83.08100 34027 ft 530 kts 233°
2026-05-04 16:52 66.13215 -83.38345 34038 ft 532 kts 233°
2026-05-04 16:53 66.06946 -83.60894 34042 ft 531 kts 233°
2026-05-04 16:54 65.98556 -83.90711 34026 ft 529 kts 233°
2026-05-04 16:55 65.85884 -84.34996 34019 ft 529 kts 232°
2026-05-04 16:56 65.75228 -84.71568 34002 ft 532 kts 232°
2026-05-04 16:57 65.68747 -84.93519 34124 ft 534 kts 232°
2026-05-04 16:58 65.62307 -85.15124 34952 ft 524 kts 232°
2026-05-04 16:58 65.60170 -85.22247 35197 ft 522 kts 232°
2026-05-04 16:59 65.55915 -85.36358 35812 ft 516 kts 232°
2026-05-04 17:00 65.47462 -85.64125 35995 ft 510 kts 232°
2026-05-04 17:01 65.37606 -85.96077 35988 ft 511 kts 231°
2026-05-04 17:02 65.29056 -86.23420 35974 ft 514 kts 231°
2026-05-04 17:03 65.22601 -86.43849 35989 ft 514 kts 231°
2026-05-04 17:03 65.16106 -86.64219 35968 ft 515 kts 231°
2026-05-04 17:04 65.07433 -86.91131 35966 ft 514 kts 230°
2026-05-04 17:05 64.98687 -87.17937 35977 ft 515 kts 230°
2026-05-04 17:06 64.92083 -87.37971 35970 ft 517 kts 231°
2026-05-04 17:07 64.86180 -87.55723 35971 ft 517 kts 230°
2026-05-04 17:07 64.80983 -87.71240 35974 ft 516 kts 230°
2026-05-04 17:08 64.74308 -87.91011 35978 ft 515 kts 230°
2026-05-04 17:09 64.69875 -88.04041 35962 ft 514 kts 230°
2026-05-04 17:09 64.65414 -88.17079 35975 ft 514 kts 230°
2026-05-04 17:10 64.54143 -88.49683 35966 ft 518 kts 229°
2026-05-04 17:11 64.49599 -88.62695 35958 ft 519 kts 229°
2026-05-04 17:12 64.42752 -88.82163 35951 ft 520 kts 229°
2026-05-04 17:13 64.31274 -89.14411 35939 ft 520 kts 229°
2026-05-04 17:14 64.21996 -89.40143 35928 ft 523 kts 229°
2026-05-04 17:15 64.15029 -89.59276 35931 ft 516 kts 228°
2026-05-04 17:16 64.05811 -89.84341 35931 ft 517 kts 228°
2026-05-04 17:17 63.95910 -90.08001 35923 ft 515 kts 217°
2026-05-04 17:18 63.84793 -90.28421 35917 ft 512 kts 217°
2026-05-04 17:19 63.73764 -90.48808 35938 ft 512 kts 218°
2026-05-04 17:20 63.62667 -90.69124 35917 ft 516 kts 217°
2026-05-04 17:20 63.54282 -90.84327 35902 ft 517 kts 217°
2026-05-04 17:21 63.43107 -91.04407 35918 ft 516 kts 217°
2026-05-04 17:22 63.37499 -91.14407 35917 ft 516 kts 217°
2026-05-04 17:23 63.26264 -91.34285 35890 ft 516 kts 217°
2026-05-04 17:24 63.17820 -91.49093 35903 ft 516 kts 217°
2026-05-04 17:25 63.06528 -91.68720 35887 ft 518 kts 217°
2026-05-04 17:26 62.95116 -91.88354 35885 ft 521 kts 216°
2026-05-04 17:27 62.80807 -92.12762 35896 ft 521 kts 218°
2026-05-04 17:28 62.69911 -92.33418 35869 ft 519 kts 220°
2026-05-04 17:29 62.53570 -92.64061 35871 ft 517 kts 219°
2026-05-04 17:31 62.39882 -92.89328 35885 ft 519 kts 219°
2026-05-04 17:32 62.26095 -93.14469 35880 ft 520 kts 219°
2026-05-04 17:33 62.15030 -93.34420 35892 ft 520 kts 219°
2026-05-04 17:34 62.03959 -93.54185 35880 ft 520 kts 219°
2026-05-04 17:35 61.90057 -93.78733 35875 ft 519 kts 219°
2026-05-04 17:36 61.84490 -93.88480 35874 ft 519 kts 218°
2026-05-04 17:36 61.78908 -93.98205 35869 ft 520 kts 218°
2026-05-04 17:37 61.73313 -94.07906 35871 ft 520 kts 218°
2026-05-04 17:37 61.67748 -94.17508 35872 ft 520 kts 218°
2026-05-04 17:38 61.62135 -94.27145 35858 ft 520 kts 218°
2026-05-04 17:38 61.56524 -94.36733 35866 ft 520 kts 218°
2026-05-04 17:39 61.48098 -94.51046 35865 ft 519 kts 218°
2026-05-04 17:39 61.42475 -94.60540 35865 ft 519 kts 218°
2026-05-04 17:40 61.36847 -94.69996 35856 ft 519 kts 218°
2026-05-04 17:40 61.31211 -94.79423 35865 ft 519 kts 218°
2026-05-04 17:41 61.25566 -94.88818 35858 ft 520 kts 218°
2026-05-04 17:41 61.19910 -94.98188 35861 ft 520 kts 218°
2026-05-04 17:42 61.14241 -95.07535 35868 ft 521 kts 217°
2026-05-04 17:42 61.08596 -95.16797 35860 ft 521 kts 217°
2026-05-04 17:43 61.02910 -95.26085 35871 ft 521 kts 217°
2026-05-04 17:43 60.97213 -95.35349 35864 ft 521 kts 217°
2026-05-04 17:44 60.91515 -95.44567 35874 ft 522 kts 217°
2026-05-04 17:44 60.85802 -95.53765 35867 ft 522 kts 217°
2026-05-04 17:45 60.80081 -95.62937 35874 ft 522 kts 217°
2026-05-04 17:45 60.74353 -95.72077 35864 ft 522 kts 217°
2026-05-04 17:46 60.68615 -95.81190 35884 ft 522 kts 217°
2026-05-04 17:46 60.62866 -95.90278 35880 ft 522 kts 217°
2026-05-04 17:47 60.57115 -95.99325 35889 ft 522 kts 217°
2026-05-04 17:47 60.51357 -96.08343 35883 ft 523 kts 217°
2026-05-04 17:48 60.46568 -96.15811 35878 ft 523 kts 217°
2026-05-04 17:48 60.42373 -96.22331 35883 ft 523 kts 217°
2026-05-04 17:49 60.34679 -96.34230 35872 ft 523 kts 217°
2026-05-04 17:49 60.28889 -96.43141 35888 ft 523 kts 217°
2026-05-04 17:50 60.23090 -96.52021 35867 ft 523 kts 217°
2026-05-04 17:50 60.17290 -96.60862 35862 ft 523 kts 216°
2026-05-04 17:51 60.11493 -96.69660 35861 ft 522 kts 216°
2026-05-04 17:51 60.05695 -96.78419 35874 ft 522 kts 216°
2026-05-04 17:52 60.00866 -96.85683 35869 ft 523 kts 216°
2026-05-04 17:52 59.95041 -96.94412 35881 ft 524 kts 216°
2026-05-04 17:53 59.89200 -97.03125 35874 ft 525 kts 216°
2026-05-04 17:53 59.83352 -97.11810 35878 ft 525 kts 216°
2026-05-04 17:54 59.77500 -97.20458 35873 ft 524 kts 216°
2026-05-04 17:54 59.71643 -97.29077 35866 ft 524 kts 216°
2026-05-04 17:55 59.65786 -97.37657 35886 ft 524 kts 216°
2026-05-04 17:55 59.59914 -97.46223 35876 ft 525 kts 216°
2026-05-04 17:56 59.54031 -97.54766 35868 ft 525 kts 216°
2026-05-04 17:56 59.48140 -97.63282 35883 ft 525 kts 216°
2026-05-04 17:57 59.42279 -97.71717 35880 ft 526 kts 216°
2026-05-04 17:57 59.36365 -97.80191 35883 ft 526 kts 216°
2026-05-04 17:58 59.30460 -97.88616 35890 ft 525 kts 215°
2026-05-04 17:58 59.24554 -97.97007 35888 ft 524 kts 215°
2026-05-04 17:59 59.18658 -98.05344 35889 ft 523 kts 215°
2026-05-04 18:00 59.09801 -98.17801 35882 ft 524 kts 215°
2026-05-04 18:00 59.03885 -98.26078 35901 ft 524 kts 215°
2026-05-04 18:01 58.97958 -98.34333 35890 ft 525 kts 215°
2026-05-04 18:01 58.92017 -98.42574 35902 ft 525 kts 215°
2026-05-04 18:02 58.83140 -98.54818 35854 ft 525 kts 215°
2026-05-04 18:02 58.77186 -98.62988 35843 ft 525 kts 215°
2026-05-04 18:03 58.71230 -98.71125 35847 ft 525 kts 215°
2026-05-04 18:03 58.65262 -98.79243 35861 ft 525 kts 214°
2026-05-04 18:04 58.59289 -98.87334 35869 ft 525 kts 214°
2026-05-04 18:05 58.50307 -98.99435 35904 ft 526 kts 214°
2026-05-04 18:05 58.44308 -99.07475 35911 ft 527 kts 214°
2026-05-04 18:06 58.35282 -99.19507 35899 ft 528 kts 214°
2026-05-04 18:06 58.29263 -99.27489 35917 ft 527 kts 214°
2026-05-04 18:07 58.23248 -99.35432 35902 ft 527 kts 214°
2026-05-04 18:07 58.17259 -99.43306 35917 ft 527 kts 214°
2026-05-04 18:08 58.11230 -99.51201 35921 ft 527 kts 214°
2026-05-04 18:08 58.05194 -99.59071 35913 ft 527 kts 214°
2026-05-04 18:09 57.93110 -99.74729 35919 ft 527 kts 214°
2026-05-04 18:10 57.87061 -99.82519 35916 ft 527 kts 214°
2026-05-04 18:10 57.81007 -99.90283 35932 ft 527 kts 214°
2026-05-04 18:11 57.74949 -99.98020 35937 ft 527 kts 214°
2026-05-04 18:11 57.68880 -100.05739 35937 ft 528 kts 214°
2026-05-04 18:12 57.62796 -100.13445 35927 ft 529 kts 214°
2026-05-04 18:12 57.56708 -100.21125 35929 ft 528 kts 214°
2026-05-04 18:13 57.50620 -100.28772 35925 ft 527 kts 214°
2026-05-04 18:14 57.41504 -100.40166 35936 ft 526 kts 214°
2026-05-04 18:14 57.35420 -100.47731 35926 ft 527 kts 214°
2026-05-04 18:15 57.23230 -100.62798 35939 ft 527 kts 214°
2026-05-04 18:16 57.17166 -100.70249 35945 ft 527 kts 214°
2026-05-04 18:16 57.11055 -100.77726 35929 ft 527 kts 214°
2026-05-04 18:17 57.01879 -100.88898 35939 ft 528 kts 214°
2026-05-04 18:18 56.92688 -101.00026 35869 ft 528 kts 214°
2026-05-04 18:18 56.86557 -101.07428 35878 ft 528 kts 215°
2026-05-04 18:19 56.77804 -101.19608 35883 ft 527 kts 219°
2026-05-04 18:19 56.72009 -101.27808 35944 ft 527 kts 218°
2026-05-04 18:20 56.66193 -101.35957 35940 ft 527 kts 218°
2026-05-04 18:20 56.60363 -101.44064 35936 ft 527 kts 218°
2026-05-04 18:21 56.54530 -101.52140 35942 ft 527 kts 218°
2026-05-04 18:21 56.48696 -101.60189 35925 ft 527 kts 218°
2026-05-04 18:22 56.42893 -101.68166 35924 ft 527 kts 218°
2026-05-04 18:22 56.37048 -101.76169 35932 ft 527 kts 218°
2026-05-04 18:23 56.31191 -101.84156 35939 ft 528 kts 218°
2026-05-04 18:23 56.25331 -101.92116 35938 ft 528 kts 218°
2026-05-04 18:24 56.19459 -102.00062 35950 ft 528 kts 218°
2026-05-04 18:24 56.13577 -102.07990 35918 ft 529 kts 218°
2026-05-04 18:25 56.07694 -102.15887 35935 ft 529 kts 218°
2026-05-04 18:25 56.01802 -102.23767 35937 ft 529 kts 218°
2026-05-04 18:26 55.95907 -102.31619 35950 ft 529 kts 218°
2026-05-04 18:26 55.90004 -102.39451 35952 ft 529 kts 218°
2026-05-04 18:27 55.84093 -102.47264 35940 ft 529 kts 218°
2026-05-04 18:27 55.78174 -102.55056 35936 ft 529 kts 218°
2026-05-04 18:28 55.72295 -102.62768 35936 ft 529 kts 218°
2026-05-04 18:28 55.66371 -102.70507 35939 ft 529 kts 218°
2026-05-04 18:29 55.60440 -102.78227 35942 ft 529 kts 218°
2026-05-04 18:29 55.54507 -102.85918 35944 ft 529 kts 218°
2026-05-04 18:30 55.45588 -102.97427 35930 ft 529 kts 218°
2026-05-04 18:31 55.39646 -103.05057 35933 ft 529 kts 218°
2026-05-04 18:31 55.33699 -103.12665 35935 ft 529 kts 218°
2026-05-04 18:32 55.27748 -103.20250 35940 ft 528 kts 218°
2026-05-04 18:32 55.21790 -103.27814 35935 ft 529 kts 217°
2026-05-04 18:33 55.15832 -103.35350 35940 ft 528 kts 218°
2026-05-04 18:33 55.09870 -103.42863 35938 ft 528 kts 218°
2026-05-04 18:34 55.03901 -103.50357 35941 ft 528 kts 218°
2026-05-04 18:34 54.97968 -103.57778 35930 ft 529 kts 218°
2026-05-04 18:35 54.91984 -103.65235 35946 ft 529 kts 218°
2026-05-04 18:35 54.85996 -103.72671 35913 ft 529 kts 218°
2026-05-04 18:36 54.80003 -103.80087 35944 ft 529 kts 218°
2026-05-04 18:36 54.74003 -103.87479 35941 ft 530 kts 218°
2026-05-04 18:37 54.67989 -103.94856 35957 ft 530 kts 218°
2026-05-04 18:37 54.61969 -104.02217 35946 ft 531 kts 217°
2026-05-04 18:38 54.55935 -104.09570 35938 ft 531 kts 217°
2026-05-04 18:38 54.49899 -104.16901 35943 ft 531 kts 218°
2026-05-04 18:39 54.43855 -104.24212 35953 ft 532 kts 218°
2026-05-04 18:39 54.37796 -104.31515 35960 ft 532 kts 218°
2026-05-04 18:40 54.31730 -104.38800 35959 ft 533 kts 218°
2026-05-04 18:40 54.25652 -104.46073 35964 ft 533 kts 217°
2026-05-04 18:41 54.19612 -104.53273 35955 ft 533 kts 218°
2026-05-04 18:41 54.13528 -104.60499 35963 ft 533 kts 218°
2026-05-04 18:42 54.07437 -104.67708 35963 ft 533 kts 218°
2026-05-04 18:42 54.01341 -104.74897 35962 ft 533 kts 217°
2026-05-04 18:43 53.96234 -104.80898 35962 ft 533 kts 217°
2026-05-04 18:43 53.90173 -104.87997 35959 ft 532 kts 218°
2026-05-04 18:44 53.84076 -104.95114 35967 ft 532 kts 217°
2026-05-04 18:44 53.77971 -105.02214 35982 ft 532 kts 217°
2026-05-04 18:45 53.71865 -105.09290 35973 ft 533 kts 217°
2026-05-04 18:45 53.65742 -105.16360 35979 ft 533 kts 217°
2026-05-04 18:46 53.59620 -105.23403 35976 ft 533 kts 217°
2026-05-04 18:46 53.53497 -105.30423 35985 ft 533 kts 217°
2026-05-04 18:47 53.47365 -105.37429 35983 ft 533 kts 217°
2026-05-04 18:47 53.41225 -105.44418 35967 ft 533 kts 217°
2026-05-04 18:48 53.35089 -105.51379 35953 ft 533 kts 217°
2026-05-04 18:48 53.28948 -105.58322 35921 ft 533 kts 217°
2026-05-04 18:49 53.22799 -105.65251 35937 ft 533 kts 217°
2026-05-04 18:49 53.16585 -105.72016 35952 ft 534 kts 215°
2026-05-04 18:50 53.10303 -105.78484 35949 ft 535 kts 215°
2026-05-04 18:50 53.03972 -105.84975 35967 ft 535 kts 215°
2026-05-04 18:51 52.97657 -105.91491 35952 ft 535 kts 215°
2026-05-04 18:51 52.91337 -105.98019 36001 ft 534 kts 215°
2026-05-04 18:52 52.85024 -106.04519 36001 ft 534 kts 215°
2026-05-04 18:52 52.78707 -106.10994 36016 ft 534 kts 215°
2026-05-04 18:53 52.72382 -106.17454 36004 ft 534 kts 215°
2026-05-04 18:53 52.66053 -106.23895 36002 ft 534 kts 215°
2026-05-04 18:54 52.59737 -106.30301 36016 ft 533 kts 215°
2026-05-04 18:54 52.53417 -106.36689 36019 ft 533 kts 215°
2026-05-04 18:55 52.47096 -106.43058 36022 ft 533 kts 215°
2026-05-04 18:55 52.37647 -106.52537 36004 ft 533 kts 215°
2026-05-04 18:56 52.31314 -106.58863 35975 ft 533 kts 215°
2026-05-04 18:56 52.24989 -106.65162 35978 ft 533 kts 215°
2026-05-04 18:57 52.18654 -106.71450 35983 ft 533 kts 215°
2026-05-04 18:57 52.12429 -106.77970 35982 ft 532 kts 218°
2026-05-04 18:58 52.06346 -106.84809 35991 ft 532 kts 218°
2026-05-04 18:58 52.00292 -106.91595 36017 ft 531 kts 218°
2026-05-04 18:59 51.94175 -106.98332 36022 ft 531 kts 218°
2026-05-04 18:59 51.88042 -107.05018 36026 ft 531 kts 218°
2026-05-04 19:00 51.81905 -107.11681 36034 ft 531 kts 218°
2026-05-04 19:00 51.75778 -107.18319 36041 ft 531 kts 218°
2026-05-04 19:01 51.69632 -107.24958 36028 ft 531 kts 218°
2026-05-04 19:01 51.63487 -107.31576 36038 ft 531 kts 218°
2026-05-04 19:02 51.57342 -107.38172 36043 ft 531 kts 218°
2026-05-04 19:02 51.51231 -107.44710 36046 ft 531 kts 218°
2026-05-04 19:03 51.45073 -107.51277 36051 ft 532 kts 218°
2026-05-04 19:03 51.38907 -107.57827 36045 ft 532 kts 218°
2026-05-04 19:04 51.32730 -107.64371 36053 ft 532 kts 218°
2026-05-04 19:04 51.26551 -107.70895 36052 ft 533 kts 218°
2026-05-04 19:05 51.20361 -107.77409 36050 ft 533 kts 218°
2026-05-04 19:05 51.14165 -107.83906 36006 ft 533 kts 218°
2026-05-04 19:06 51.07958 -107.90391 36049 ft 533 kts 218°
2026-05-04 19:06 51.01751 -107.96863 36053 ft 534 kts 218°
2026-05-04 19:07 50.95538 -108.03318 36055 ft 534 kts 218°
2026-05-04 19:07 50.89313 -108.09762 36055 ft 535 kts 218°
2026-05-04 19:08 50.83076 -108.16193 36031 ft 534 kts 218°
2026-05-04 19:08 50.76849 -108.22599 36060 ft 534 kts 218°
2026-05-04 19:09 50.70610 -108.29000 36058 ft 535 kts 218°
2026-05-04 19:09 50.64404 -108.35343 36054 ft 535 kts 218°
2026-05-04 19:10 50.58151 -108.41712 36056 ft 535 kts 218°
2026-05-04 19:10 50.51891 -108.48069 36052 ft 535 kts 218°
2026-05-04 19:11 50.45636 -108.54400 36062 ft 535 kts 218°
2026-05-04 19:11 50.39377 -108.60715 36055 ft 535 kts 218°
2026-05-04 19:12 50.29993 -108.70145 36060 ft 534 kts 218°
2026-05-04 19:13 50.23743 -108.76403 36050 ft 533 kts 218°
2026-05-04 19:13 50.17495 -108.82639 36054 ft 533 kts 218°
2026-05-04 19:14 50.11242 -108.88860 36053 ft 534 kts 218°
2026-05-04 19:14 50.04978 -108.95075 36052 ft 534 kts 218°
2026-05-04 19:15 49.98742 -109.01332 35985 ft 531 kts 221°
2026-05-04 19:15 49.92753 -109.08003 36040 ft 529 kts 223°
2026-05-04 19:16 49.86800 -109.14724 36054 ft 529 kts 223°
2026-05-04 19:16 49.80823 -109.21417 36038 ft 530 kts 222°
2026-05-04 19:17 49.74834 -109.28068 36036 ft 530 kts 222°
2026-05-04 19:17 49.68876 -109.34650 36006 ft 530 kts 223°
2026-05-04 19:18 49.62875 -109.41268 36022 ft 530 kts 223°
2026-05-04 19:18 49.56872 -109.47873 36026 ft 530 kts 223°
2026-05-04 19:19 49.50859 -109.54465 36024 ft 531 kts 223°
2026-05-04 19:19 49.44840 -109.61041 35982 ft 531 kts 223°
2026-05-04 19:20 49.38811 -109.67609 36019 ft 532 kts 223°
2026-05-04 19:20 49.32765 -109.74179 36019 ft 533 kts 223°
2026-05-04 19:21 49.26701 -109.80748 36041 ft 534 kts 223°
2026-05-04 19:21 49.20665 -109.87264 35967 ft 535 kts 223°
2026-05-04 19:22 49.14591 -109.93798 36022 ft 534 kts 223°
2026-05-04 19:22 49.08505 -110.00331 36032 ft 534 kts 223°
2026-05-04 19:23 49.02420 -110.06844 36032 ft 534 kts 223°
2026-05-04 19:23 48.96337 -110.13355 36040 ft 533 kts 224°
2026-05-04 19:24 48.90708 -110.20495 36043 ft 524 kts 230°
2026-05-04 19:24 48.85233 -110.27834 36041 ft 525 kts 230°
2026-05-04 19:25 48.79732 -110.35146 36039 ft 526 kts 229°
2026-05-04 19:25 48.74208 -110.42411 36036 ft 526 kts 229°
2026-05-04 19:26 48.68674 -110.49650 36022 ft 525 kts 229°
2026-05-04 19:26 48.63144 -110.56864 36031 ft 525 kts 229°
2026-05-04 19:27 48.57644 -110.64022 36033 ft 525 kts 229°
2026-05-04 19:27 48.52099 -110.71219 36023 ft 526 kts 229°
2026-05-04 19:28 48.46553 -110.78393 35998 ft 524 kts 229°
2026-05-04 19:28 48.41012 -110.85540 36024 ft 524 kts 229°
2026-05-04 19:29 48.35468 -110.92671 36031 ft 525 kts 229°
2026-05-04 19:29 48.29910 -110.99798 36031 ft 525 kts 229°
2026-05-04 19:30 48.24351 -111.06905 36017 ft 525 kts 229°
2026-05-04 19:30 48.18787 -111.13998 36018 ft 525 kts 228°
2026-05-04 19:31 48.13216 -111.21078 36040 ft 525 kts 228°
2026-05-04 19:31 48.07634 -111.28153 36039 ft 526 kts 228°
2026-05-04 19:32 48.02036 -111.35226 36037 ft 527 kts 228°
2026-05-04 19:32 47.96476 -111.42229 36034 ft 527 kts 228°
2026-05-04 19:33 47.90864 -111.49276 36042 ft 526 kts 228°
2026-05-04 19:33 47.85266 -111.56286 36039 ft 526 kts 228°
2026-05-04 19:34 47.80576 -111.62145 36006 ft 525 kts 227°
2026-05-04 19:34 47.74988 -111.69107 36041 ft 524 kts 227°
2026-05-04 19:35 47.70332 -111.74894 36039 ft 524 kts 227°
2026-05-04 19:35 47.63825 -111.82955 36043 ft 525 kts 227°
2026-05-04 19:36 47.58220 -111.89880 36008 ft 524 kts 227°
2026-05-04 19:36 47.52626 -111.96771 36056 ft 523 kts 226°
2026-05-04 19:37 47.46634 -112.03054 36052 ft 535 kts 216°
2026-05-04 19:37 47.40135 -112.08424 36069 ft 536 kts 215°
2026-05-04 19:38 47.33608 -112.13787 36034 ft 537 kts 215°
2026-05-04 19:38 47.27107 -112.19184 36068 ft 537 kts 215°
2026-05-04 19:39 47.20605 -112.24610 36075 ft 537 kts 215°
2026-05-04 19:39 47.14091 -112.30037 36069 ft 538 kts 215°
2026-05-04 19:40 47.07595 -112.35428 36015 ft 540 kts 215°
2026-05-04 19:40 47.01015 -112.40868 36034 ft 540 kts 214°
2026-05-04 19:41 46.94514 -112.46228 36047 ft 540 kts 214°
2026-05-04 19:41 46.87959 -112.51615 36035 ft 540 kts 214°
2026-05-04 19:42 46.81401 -112.56991 35969 ft 540 kts 214°
2026-05-04 19:42 46.74854 -112.62344 36013 ft 539 kts 214°
2026-05-04 19:43 46.68311 -112.67678 36002 ft 539 kts 214°
2026-05-04 19:43 46.61769 -112.72995 36002 ft 539 kts 214°
2026-05-04 19:44 46.55222 -112.78303 35940 ft 538 kts 214°
2026-05-04 19:44 46.48686 -112.83589 35970 ft 538 kts 214°
2026-05-04 19:45 46.42128 -112.88878 35977 ft 540 kts 213°
2026-05-04 19:45 46.35604 -112.94134 35983 ft 541 kts 213°
2026-05-04 19:46 46.29017 -112.99412 35926 ft 541 kts 213°
2026-05-04 19:46 46.22416 -113.04678 35949 ft 542 kts 213°
2026-05-04 19:47 46.15812 -113.09937 35935 ft 541 kts 213°
2026-05-04 19:47 46.09212 -113.15191 35927 ft 542 kts 213°
2026-05-04 19:48 46.02600 -113.20439 35869 ft 542 kts 212°
2026-05-04 19:48 45.95991 -113.25666 35881 ft 542 kts 212°
2026-05-04 19:49 45.89385 -113.30871 35884 ft 541 kts 212°
2026-05-04 19:49 45.82779 -113.36067 35864 ft 541 kts 212°
2026-05-04 19:50 45.76172 -113.41250 35826 ft 541 kts 212°
2026-05-04 19:50 45.69620 -113.46374 35848 ft 540 kts 212°
2026-05-04 19:51 45.63024 -113.51519 35838 ft 540 kts 211°
2026-05-04 19:51 45.56432 -113.56647 35826 ft 540 kts 211°
2026-05-04 19:52 45.49836 -113.61765 35822 ft 539 kts 211°
2026-05-04 19:52 45.43242 -113.66868 35810 ft 538 kts 211°
2026-05-04 19:53 45.36666 -113.71943 35826 ft 538 kts 211°
2026-05-04 19:53 45.30084 -113.77010 35805 ft 537 kts 211°
2026-05-04 19:54 45.23530 -113.82042 35784 ft 536 kts 211°
2026-05-04 19:54 45.16971 -113.87062 35796 ft 535 kts 211°
2026-05-04 19:55 45.10422 -113.92064 35793 ft 535 kts 211°
2026-05-04 19:55 45.03918 -113.97021 35779 ft 535 kts 210°
2026-05-04 19:56 44.97356 -114.01968 35773 ft 534 kts 209°
2026-05-04 19:56 44.90727 -114.06694 35772 ft 534 kts 208°
2026-05-04 19:57 44.84071 -114.11360 35788 ft 534 kts 208°
2026-05-04 19:57 44.77424 -114.16043 35822 ft 534 kts 208°
2026-05-04 19:58 44.71725 -114.20070 35829 ft 534 kts 208°
2026-05-04 19:58 44.65099 -114.24749 35877 ft 533 kts 208°
2026-05-04 19:59 44.58464 -114.29424 35896 ft 532 kts 208°
2026-05-04 19:59 44.51850 -114.34068 35898 ft 532 kts 208°
2026-05-04 20:00 44.45238 -114.38699 35737 ft 531 kts 208°
2026-05-04 20:00 44.38672 -114.43286 35763 ft 531 kts 207°
2026-05-04 20:01 44.32051 -114.47895 35767 ft 532 kts 208°
2026-05-04 20:01 44.25427 -114.52496 35762 ft 532 kts 207°
2026-05-04 20:02 44.18811 -114.57083 35767 ft 531 kts 207°
2026-05-04 20:02 44.12183 -114.61670 35790 ft 532 kts 207°
2026-05-04 20:03 44.05552 -114.66240 35784 ft 532 kts 207°
2026-05-04 20:03 43.98910 -114.70810 35789 ft 532 kts 207°
2026-05-04 20:04 43.92265 -114.75373 35774 ft 533 kts 207°
2026-05-04 20:04 43.85612 -114.79925 35788 ft 533 kts 207°
2026-05-04 20:05 43.78954 -114.84470 35770 ft 534 kts 207°
2026-05-04 20:05 43.72288 -114.89008 35752 ft 533 kts 206°
2026-05-04 20:06 43.65644 -114.93526 35766 ft 531 kts 206°
2026-05-04 20:06 43.59017 -114.98022 35760 ft 530 kts 206°
2026-05-04 20:07 43.52399 -115.02492 35785 ft 529 kts 206°
2026-05-04 20:07 43.45845 -115.06910 35759 ft 527 kts 206°
2026-05-04 20:08 43.39262 -115.11342 35763 ft 526 kts 206°
2026-05-04 20:08 43.32671 -115.15736 35769 ft 526 kts 206°
2026-05-04 20:09 43.26058 -115.20023 35771 ft 525 kts 205°
2026-05-04 20:09 43.19449 -115.24282 35753 ft 525 kts 205°
2026-05-04 20:10 43.12845 -115.28542 35754 ft 524 kts 205°
2026-05-04 20:10 43.06244 -115.32801 35770 ft 524 kts 205°
2026-05-04 20:11 42.99695 -115.37019 35756 ft 523 kts 205°
2026-05-04 20:11 42.93115 -115.41246 35750 ft 522 kts 205°
2026-05-04 20:12 42.86537 -115.45461 35745 ft 522 kts 205°
2026-05-04 20:12 42.79968 -115.49660 35750 ft 521 kts 205°
2026-05-04 20:13 42.73415 -115.53838 35747 ft 520 kts 205°
2026-05-04 20:13 42.66861 -115.58008 35752 ft 520 kts 205°
2026-05-04 20:14 42.60303 -115.62170 35767 ft 520 kts 205°
2026-05-04 20:14 42.53741 -115.66326 35771 ft 520 kts 205°
2026-05-04 20:15 42.47174 -115.70475 35766 ft 520 kts 205°
2026-05-04 20:15 42.40619 -115.74605 35781 ft 520 kts 205°
2026-05-04 20:16 42.34060 -115.78730 35793 ft 519 kts 205°
2026-05-04 20:16 42.27514 -115.82837 35788 ft 518 kts 205°
2026-05-04 20:17 42.20975 -115.86931 35797 ft 518 kts 204°
2026-05-04 20:17 42.14439 -115.91012 35798 ft 517 kts 204°
2026-05-04 20:18 42.07916 -115.95077 35800 ft 516 kts 204°
2026-05-04 20:18 42.01400 -115.99130 35800 ft 515 kts 204°
2026-05-04 20:19 41.94933 -116.03270 35796 ft 514 kts 206°
2026-05-04 20:19 41.88543 -116.07559 35799 ft 513 kts 206°
2026-05-04 20:20 41.82206 -116.11812 35799 ft 512 kts 206°
2026-05-04 20:20 41.75834 -116.16046 35787 ft 511 kts 205°
2026-05-04 20:21 41.69463 -116.20254 35782 ft 511 kts 205°
2026-05-04 20:21 41.59898 -116.26549 35784 ft 511 kts 205°
2026-05-04 20:22 41.53512 -116.30743 35784 ft 512 kts 205°
2026-05-04 20:22 41.47111 -116.34940 35799 ft 512 kts 205°
2026-05-04 20:23 41.41789 -116.38422 35784 ft 512 kts 205°
2026-05-04 20:23 41.35393 -116.42597 35777 ft 512 kts 205°
2026-05-04 20:24 41.28997 -116.46762 35780 ft 511 kts 205°
2026-05-04 20:24 41.22616 -116.50908 35783 ft 510 kts 205°
2026-05-04 20:25 41.16258 -116.55033 35776 ft 507 kts 205°
2026-05-04 20:25 41.09923 -116.59131 35759 ft 506 kts 205°
2026-05-04 20:26 41.03623 -116.63199 35765 ft 506 kts 205°
2026-05-04 20:26 40.97289 -116.67281 35763 ft 505 kts 205°
2026-05-04 20:27 40.90971 -116.71344 35750 ft 504 kts 205°
2026-05-04 20:27 40.84672 -116.75386 35749 ft 503 kts 205°
2026-05-04 20:28 40.78375 -116.79419 35756 ft 502 kts 205°
2026-05-04 20:28 40.72108 -116.83436 35843 ft 500 kts 206°
2026-05-04 20:29 40.65950 -116.87662 35871 ft 498 kts 207°
2026-05-04 20:29 40.59839 -116.91975 35869 ft 498 kts 207°
2026-05-04 20:30 40.53717 -116.96261 35890 ft 498 kts 207°
2026-05-04 20:30 40.47595 -117.00504 35840 ft 497 kts 207°
2026-05-04 20:31 40.41518 -117.04694 35818 ft 495 kts 207°
2026-05-04 20:31 40.35418 -117.08893 35792 ft 494 kts 207°
2026-05-04 20:32 40.29328 -117.13076 35790 ft 493 kts 208°
2026-05-04 20:32 40.23271 -117.17230 35773 ft 490 kts 208°
2026-05-04 20:33 40.17229 -117.21366 35780 ft 491 kts 207°
2026-05-04 20:33 40.11176 -117.25501 35786 ft 491 kts 207°
2026-05-04 20:34 40.05110 -117.29635 35802 ft 491 kts 208°
2026-05-04 20:34 39.99077 -117.33739 35781 ft 487 kts 208°
2026-05-04 20:35 39.93092 -117.37804 35779 ft 483 kts 208°
2026-05-04 20:35 39.87142 -117.41836 35786 ft 481 kts 208°
2026-05-04 20:36 39.81213 -117.45845 35793 ft 479 kts 208°
2026-05-04 20:36 39.75296 -117.49838 35803 ft 479 kts 208°
2026-05-04 20:37 39.69376 -117.53827 35805 ft 480 kts 208°
2026-05-04 20:37 39.63481 -117.57791 35806 ft 481 kts 208°
2026-05-04 20:38 39.57530 -117.61784 35807 ft 481 kts 208°
2026-05-04 20:38 39.51599 -117.65756 35788 ft 479 kts 208°
2026-05-04 20:39 39.45691 -117.69706 35792 ft 477 kts 208°
2026-05-04 20:39 39.39798 -117.73637 35791 ft 475 kts 208°
2026-05-04 20:40 39.33923 -117.77549 35798 ft 475 kts 208°
2026-05-04 20:40 39.28040 -117.81461 35789 ft 476 kts 208°
2026-05-04 20:41 39.22147 -117.85370 35790 ft 476 kts 208°
2026-05-04 20:41 39.16257 -117.89270 35792 ft 476 kts 208°
2026-05-04 20:42 39.10397 -117.93144 35784 ft 477 kts 208°
2026-05-04 20:42 39.04512 -117.97027 35785 ft 473 kts 208°
2026-05-04 20:43 38.98646 -118.00793 35778 ft 470 kts 205°
2026-05-04 20:43 38.92652 -118.04076 35785 ft 467 kts 204°
2026-05-04 20:44 38.86680 -118.07318 35799 ft 466 kts 204°
2026-05-04 20:44 38.80693 -118.10586 35791 ft 468 kts 204°
2026-05-04 20:45 38.74698 -118.13864 35786 ft 468 kts 204°
2026-05-04 20:45 38.68695 -118.17142 35790 ft 468 kts 204°
2026-05-04 20:46 38.62699 -118.20408 35802 ft 469 kts 204°
2026-05-04 20:46 38.56745 -118.23645 35808 ft 467 kts 205°
2026-05-04 20:47 38.50784 -118.26924 35812 ft 465 kts 205°
2026-05-04 20:47 38.44859 -118.30203 35824 ft 463 kts 205°
2026-05-04 20:48 38.38944 -118.33470 35812 ft 463 kts 205°
2026-05-04 20:48 38.33045 -118.36715 35801 ft 460 kts 205°
2026-05-04 20:49 38.27174 -118.39940 35802 ft 460 kts 205°
2026-05-04 20:49 38.21296 -118.43160 35788 ft 460 kts 205°
2026-05-04 20:50 38.15409 -118.46383 35785 ft 461 kts 205°
2026-05-04 20:50 38.09523 -118.49597 35771 ft 459 kts 205°
2026-05-04 20:51 38.03673 -118.52786 35761 ft 456 kts 205°
2026-05-04 20:51 37.97896 -118.55930 35770 ft 454 kts 205°
2026-05-04 20:52 37.92103 -118.59078 35767 ft 453 kts 205°
2026-05-04 20:52 37.86321 -118.62214 35821 ft 451 kts 206°
2026-05-04 20:53 37.80560 -118.65334 35868 ft 449 kts 206°
2026-05-04 20:53 37.74820 -118.68439 35939 ft 448 kts 205°
2026-05-04 20:54 37.69067 -118.71543 35976 ft 450 kts 205°
2026-05-04 20:54 37.63310 -118.74643 35996 ft 450 kts 206°
2026-05-04 20:55 37.57560 -118.77734 35999 ft 449 kts 205°
2026-05-04 20:55 37.51821 -118.80813 35987 ft 448 kts 206°
2026-05-04 20:56 37.46090 -118.83894 35950 ft 448 kts 206°
2026-05-04 20:56 37.40356 -118.86955 35923 ft 448 kts 206°
2026-05-04 20:57 37.34638 -118.90012 35930 ft 445 kts 206°
2026-05-04 20:57 37.28949 -118.93042 35902 ft 443 kts 206°
2026-05-04 20:58 37.23284 -118.96063 35923 ft 442 kts 206°
2026-05-04 20:58 37.17624 -118.99071 35930 ft 442 kts 206°
2026-05-04 20:59 37.11990 -119.02061 35968 ft 442 kts 206°
2026-05-04 20:59 37.06325 -119.05063 35980 ft 442 kts 206°
2026-05-04 21:00 37.00657 -119.08062 35979 ft 443 kts 206°
2026-05-04 21:00 36.94978 -119.11063 35980 ft 443 kts 206°
2026-05-04 21:01 36.89297 -119.14056 36027 ft 443 kts 206°
2026-05-04 21:01 36.83624 -119.17042 36044 ft 442 kts 206°
2026-05-04 21:02 36.77953 -119.20023 36020 ft 442 kts 206°
2026-05-04 21:02 36.72282 -119.23003 36034 ft 442 kts 206°
2026-05-04 21:03 36.66613 -119.25970 36054 ft 443 kts 205°
2026-05-04 21:03 36.60938 -119.28938 36046 ft 442 kts 206°
2026-05-04 21:04 36.55278 -119.31894 36060 ft 441 kts 206°
2026-05-04 21:04 36.49625 -119.34841 36066 ft 440 kts 206°
2026-05-04 21:05 36.43978 -119.37781 36068 ft 440 kts 206°
2026-05-04 21:05 36.38339 -119.40713 36071 ft 439 kts 206°
2026-05-04 21:06 36.32741 -119.43618 36072 ft 438 kts 206°
2026-05-04 21:06 36.27115 -119.46533 36075 ft 438 kts 206°
2026-05-04 21:07 36.21489 -119.49444 36070 ft 438 kts 206°
2026-05-04 21:07 36.15865 -119.52349 36040 ft 438 kts 206°
2026-05-04 21:08 36.10246 -119.55248 36068 ft 438 kts 206°
2026-05-04 21:08 36.04626 -119.58143 36054 ft 437 kts 206°
2026-05-04 21:09 35.99042 -119.61008 36046 ft 437 kts 205°
2026-05-04 21:09 35.93202 -119.63369 36040 ft 440 kts 200°
2026-05-04 21:10 35.87384 -119.65524 36032 ft 439 kts 201°
2026-05-04 21:10 35.81538 -119.67712 36039 ft 439 kts 201°
2026-05-04 21:11 35.75680 -119.69907 36023 ft 440 kts 201°
2026-05-04 21:11 35.69830 -119.72095 36021 ft 440 kts 201°
2026-05-04 21:12 35.63896 -119.73997 36013 ft 443 kts 195°
2026-05-04 21:12 35.57831 -119.75429 36021 ft 444 kts 196°
2026-05-04 21:13 35.51756 -119.76891 36022 ft 445 kts 196°
2026-05-04 21:13 35.46706 -119.78116 36012 ft 446 kts 196°
2026-05-04 21:14 35.40616 -119.79591 36007 ft 446 kts 196°
2026-05-04 21:14 35.34550 -119.81047 35988 ft 436 kts 194°
2026-05-04 21:15 35.31524 -119.81198 36012 ft 441 kts 180°
2026-05-04 21:15 35.28485 -119.80456 36012 ft 448 kts 171°
2026-05-04 21:15 35.22817 -119.77050 35978 ft 467 kts 152°
2026-05-04 21:16 35.20262 -119.74618 35712 ft 462 kts 150°
2026-05-04 21:16 35.17766 -119.72184 35287 ft 457 kts 150°
2026-05-04 21:16 35.15269 -119.69766 34656 ft 457 kts 151°
2026-05-04 21:16 35.12761 -119.67377 34008 ft 458 kts 152°
2026-05-04 21:17 35.10239 -119.65006 33320 ft 457 kts 153°
2026-05-04 21:17 35.07723 -119.62657 32797 ft 453 kts 153°
2026-05-04 21:17 35.05236 -119.60341 32366 ft 447 kts 153°
2026-05-04 21:17 35.02781 -119.58058 31930 ft 440 kts 154°
2026-05-04 21:18 35.00393 -119.55840 31502 ft 435 kts 154°
2026-05-04 21:18 34.97995 -119.53619 30994 ft 432 kts 155°
2026-05-04 21:18 34.97190 -119.52874 30827 ft 431 kts 155°
2026-05-04 21:18 34.93188 -119.49168 30108 ft 423 kts 155°
2026-05-04 21:19 34.90854 -119.47010 29600 ft 419 kts 155°
2026-05-04 21:19 34.88524 -119.44906 29037 ft 416 kts 156°
2026-05-04 21:19 34.86196 -119.42832 28448 ft 413 kts 156°
2026-05-04 21:19 34.83893 -119.40783 27978 ft 409 kts 156°
2026-05-04 21:20 34.81605 -119.38744 27473 ft 406 kts 155°
2026-05-04 21:20 34.79330 -119.36719 26937 ft 405 kts 155°
2026-05-04 21:20 34.77060 -119.34693 26371 ft 404 kts 155°
2026-05-04 21:20 34.74796 -119.32668 25874 ft 403 kts 155°
2026-05-04 21:21 34.72531 -119.30672 25390 ft 401 kts 155°
2026-05-04 21:21 34.70265 -119.28698 24926 ft 400 kts 155°
2026-05-04 21:21 34.68010 -119.26734 24439 ft 398 kts 154°
2026-05-04 21:21 34.65761 -119.24776 23939 ft 397 kts 154°
2026-05-04 21:22 34.63515 -119.22821 23437 ft 397 kts 154°
2026-05-04 21:22 34.61300 -119.20910 22950 ft 395 kts 154°
2026-05-04 21:22 34.59071 -119.18999 22546 ft 391 kts 153°
2026-05-04 21:22 34.56858 -119.17093 22131 ft 388 kts 153°
2026-05-04 21:23 34.54666 -119.15180 21677 ft 387 kts 152°
2026-05-04 21:23 34.52496 -119.13253 21262 ft 386 kts 151°
2026-05-04 21:23 34.50341 -119.11334 20867 ft 383 kts 150°
2026-05-04 21:23 34.48198 -119.09430 20496 ft 381 kts 151°
2026-05-04 21:24 34.46072 -119.07550 20082 ft 374 kts 150°
2026-05-04 21:24 34.43984 -119.05704 19433 ft 367 kts 150°
2026-05-04 21:24 34.41959 -119.03940 18945 ft 349 kts 150°
2026-05-04 21:24 34.40011 -119.02256 18439 ft 343 kts 149°
2026-05-04 21:25 34.38077 -119.00589 18173 ft 339 kts 149°
2026-05-04 21:25 34.36181 -118.98949 17987 ft 332 kts 149°
2026-05-04 21:25 34.34316 -118.97336 17739 ft 327 kts 149°
2026-05-04 21:25 34.32488 -118.95704 17373 ft 326 kts 147°
2026-05-04 21:26 34.30679 -118.94050 17010 ft 326 kts 148°
2026-05-04 21:26 34.28867 -118.92403 16634 ft 326 kts 148°
2026-05-04 21:26 34.27028 -118.90749 15969 ft 331 kts 148°
2026-05-04 21:26 34.25189 -118.89097 15335 ft 329 kts 149°
2026-05-04 21:27 34.23347 -118.87467 14736 ft 326 kts 148°
2026-05-04 21:27 34.21531 -118.85836 14168 ft 325 kts 148°
2026-05-04 21:27 34.19760 -118.84205 13575 ft 324 kts 146°
2026-05-04 21:27 34.17997 -118.82489 13069 ft 327 kts 143°
2026-05-04 21:28 34.16332 -118.80664 12929 ft 320 kts 141°
2026-05-04 21:28 34.14730 -118.78874 12689 ft 311 kts 143°
2026-05-04 21:28 34.13085 -118.77170 12265 ft 312 kts 143°
2026-05-04 21:28 34.11439 -118.75471 11975 ft 310 kts 143°
2026-05-04 21:29 34.09808 -118.73792 11714 ft 305 kts 143°
2026-05-04 21:29 34.08196 -118.72190 11524 ft 298 kts 144°
2026-05-04 21:29 34.06589 -118.70619 11182 ft 298 kts 144°
2026-05-04 21:29 34.04959 -118.69027 10697 ft 304 kts 144°
2026-05-04 21:30 34.03352 -118.67378 10413 ft 301 kts 135°
2026-05-04 21:30 34.02312 -118.65209 10055 ft 303 kts 108°
2026-05-04 21:30 34.01990 -118.62689 9670 ft 303 kts 93°
2026-05-04 21:30 34.01911 -118.60165 9417 ft 300 kts 92°
2026-05-04 21:31 34.01855 -118.55208 8852 ft 294 kts 90°
2026-05-04 21:31 34.01841 -118.52741 8355 ft 291 kts 91°
2026-05-04 21:31 34.01742 -118.50369 7888 ft 285 kts 96°
2026-05-04 21:32 34.01498 -118.48033 7493 ft 277 kts 98°
2026-05-04 21:32 34.01245 -118.45766 7071 ft 268 kts 95°
2026-05-04 21:32 34.01337 -118.43539 6558 ft 265 kts 79°
2026-05-04 21:32 34.01718 -118.41411 6059 ft 254 kts 78°
2026-05-04 21:33 34.02062 -118.39299 5253 ft 260 kts 80°
2026-05-04 21:33 34.02345 -118.37110 4586 ft 267 kts 81°
2026-05-04 21:33 34.02672 -118.34961 4511 ft 253 kts 79°
2026-05-04 21:33 34.03014 -118.32893 4219 ft 251 kts 82°
2026-05-04 21:34 34.03209 -118.30837 4117 ft 242 kts 89°
2026-05-04 21:34 34.03239 -118.28855 4045 ft 232 kts 93°
2026-05-04 21:34 34.03007 -118.26983 3865 ft 223 kts 113°
2026-05-04 21:34 34.02285 -118.25331 3389 ft 227 kts 131°
2026-05-04 21:35 34.01276 -118.23888 3110 ft 221 kts 136°
2026-05-04 21:35 34.00243 -118.22573 2874 ft 211 kts 139°
2026-05-04 21:35 33.99214 -118.21389 2733 ft 194 kts 145°
2026-05-04 21:35 33.98109 -118.20606 2675 ft 181 kts 167°
2026-05-04 21:36 33.96872 -118.20486 2450 ft 179 kts 194°
2026-05-04 21:36 33.95778 -118.21054 2228 ft 169 kts 224°
2026-05-04 21:36 33.95189 -118.22238 2053 ft 165 kts 257°
2026-05-04 21:36 33.95106 -118.23597 2057 ft 159 kts 263°
2026-05-04 21:37 33.94992 -118.24898 2058 ft 153 kts 260°
2026-05-04 21:37 33.94874 -118.26169 1902 ft 152 kts 262°
2026-05-04 21:37 33.94743 -118.27415 1820 ft 146 kts 261°
2026-05-04 21:37 33.94612 -118.28568 1756 ft 135 kts 260°
2026-05-04 21:38 33.94560 -118.29677 1523 ft 130 kts 269°
2026-05-04 21:38 33.94543 -118.30756 1224 ft 132 kts 261°
2026-05-04 21:38 33.94403 -118.31848 1121 ft 128 kts 259°
2026-05-04 21:38 33.94278 -118.32910 918 ft 131 kts 261°
2026-05-04 21:39 33.94184 -118.34007 857 ft 130 kts 261°
2026-05-04 21:39 33.94069 -118.35077 687 ft 129 kts 261°
2026-05-04 21:39 33.93941 -118.36144 485 ft 129 kts 262°
2026-05-04 21:39 33.93835 -118.37235 348 ft 133 kts 261°
2026-05-04 21:40 33.93725 -118.38340 197 ft 132 kts 262°
2026-05-04 21:40 33.93623 -118.39422 128 ft 126 kts 262°
2026-05-04 21:40 33.93528 -118.40318 130 ft 83 kts 263°
2026-05-04 21:40 33.93477 -118.40784 126 ft 35 kts 262°
2026-05-04 21:41 33.93492 -118.41070 127 ft 25 kts 303°
2026-05-04 21:41 33.93547 -118.41231 128 ft 12 kts 295°
2026-05-04 21:41 33.93558 -118.41242 125 ft 0 kts 330°
2026-05-04 21:42 33.93565 -118.41246 125 ft 1 kts 335°
2026-05-04 21:42 33.93575 -118.41250 128 ft 2 kts 339°
2026-05-04 21:42 33.93595 -118.41256 128 ft 6 kts 348°
2026-05-04 21:42 33.93671 -118.41271 128 ft 16 kts 352°
2026-05-04 21:43 33.93778 -118.41256 126 ft 14 kts
2026-05-04 21:43 33.93823 -118.41233 125 ft 2 kts 43°
2026-05-04 21:43 33.93832 -118.41215 127 ft 3 kts 62°
2026-05-04 21:43 33.93843 -118.41192 127 ft 4 kts 54°
2026-05-04 21:44 33.93877 -118.41169 125 ft 7 kts 13°
2026-05-04 21:44 33.93942 -118.41173 127 ft 12 kts 355°
2026-05-04 21:44 33.94037 -118.41184 128 ft 15 kts 353°
2026-05-04 21:44 33.94126 -118.41196 127 ft 7 kts 360°
2026-05-04 21:45 33.94168 -118.41173 128 ft 7 kts 68°
2026-05-04 21:45 33.94173 -118.41133 126 ft 4 kts 82°
2026-05-04 21:45 33.94174 -118.41122 127 ft 0 kts 82°
2026-05-04 21:45 33.94175 -118.41114 128 ft 1 kts 82°
2026-05-04 21:46 33.94176 -118.41104 129 ft 0 kts 82°
2026-05-04 21:46 33.94176 -118.41103 129 ft 0 kts 82°